GEFSSE_prec_meanprecacc_168.txt.gz
Total_Precipitation_Accumulation
0.05 0.09 0.21 0.24 0.24 0.24 0.25 0.23 0.23 0.22 0.21 0.22 0.24 0.25 0.24 0.24 0.22 0.21 0.20 0.22 0.28 0.36 0.44 0.47 0.46 0.40 0.35 0.29 0.18 0.10 0.09 0.11 0.08 0.06 0.05 0.06 0.08 0.10 0.08 0.07 0.07 0.11 0.15
0.04 0.08 0.19 0.24 0.26 0.27 0.28 0.25 0.21 0.19 0.19 0.25 0.29 0.27 0.26 0.27 0.25 0.24 0.26 0.29 0.31 0.37 0.43 0.47 0.46 0.35 0.27 0.19 0.11 0.07 0.07 0.03 0.02 0.01 0.01 0.02 0.03 0.05 0.06 0.06 0.07 0.11 0.14
0.04 0.08 0.17 0.24 0.29 0.29 0.26 0.22 0.18 0.17 0.19 0.25 0.31 0.30 0.29 0.29 0.28 0.27 0.27 0.28 0.31 0.35 0.34 0.33 0.32 0.23 0.16 0.10 0.06 0.05 0.04 0.02 0.01 0.01 0.02 0.04 0.05 0.07 0.07 0.07 0.10 0.13 0.15
0.07 0.09 0.15 0.25 0.35 0.33 0.29 0.23 0.19 0.20 0.23 0.28 0.33 0.34 0.36 0.33 0.30 0.29 0.26 0.25 0.27 0.25 0.23 0.22 0.18 0.12 0.07 0.05 0.04 0.03 0.02 0.01 0.01 0.01 0.03 0.05 0.06 0.11 0.12 0.12 0.13 0.14 0.14
0.12 0.13 0.19 0.29 0.42 0.41 0.33 0.25 0.21 0.23 0.27 0.32 0.36 0.38 0.42 0.38 0.37 0.34 0.27 0.23 0.22 0.17 0.14 0.13 0.10 0.06 0.03 0.03 0.03 0.02 0.01 0.01 0.01 0.01 0.03 0.06 0.08 0.14 0.15 0.14 0.14 0.14 0.14
0.16 0.19 0.26 0.33 0.45 0.49 0.40 0.31 0.26 0.25 0.28 0.35 0.40 0.42 0.47 0.47 0.45 0.37 0.26 0.20 0.17 0.13 0.12 0.11 0.09 0.05 0.02 0.02 0.02 0.02 0.01 0.01 0.00 0.01 0.02 0.05 0.09 0.16 0.17 0.15 0.15 0.17 0.18
0.19 0.29 0.37 0.40 0.48 0.52 0.49 0.41 0.35 0.33 0.34 0.36 0.40 0.44 0.49 0.54 0.54 0.45 0.26 0.18 0.14 0.13 0.11 0.10 0.10 0.05 0.02 0.02 0.02 0.02 0.01 0.00 0.01 0.02 0.03 0.04 0.11 0.20 0.19 0.17 0.17 0.16 0.16
0.26 0.34 0.51 0.59 0.56 0.58 0.58 0.53 0.46 0.43 0.42 0.43 0.43 0.45 0.50 0.54 0.57 0.52 0.33 0.20 0.14 0.13 0.12 0.10 0.10 0.07 0.04 0.03 0.02 0.02 0.02 0.01 0.01 0.02 0.02 0.04 0.09 0.14 0.13 0.10 0.10 0.12 0.13
0.45 0.41 0.52 0.67 0.70 0.67 0.65 0.62 0.61 0.55 0.50 0.50 0.52 0.52 0.46 0.43 0.47 0.47 0.35 0.23 0.18 0.17 0.17 0.16 0.14 0.12 0.07 0.05 0.04 0.03 0.02 0.01 0.01 0.01 0.01 0.03 0.06 0.09 0.08 0.09 0.11 0.13 0.15
0.71 0.65 0.58 0.65 0.71 0.75 0.73 0.60 0.60 0.59 0.55 0.55 0.54 0.47 0.37 0.33 0.35 0.37 0.27 0.21 0.18 0.18 0.17 0.16 0.16 0.15 0.11 0.07 0.04 0.03 0.02 0.01 0.01 0.01 0.01 0.02 0.04 0.06 0.07 0.09 0.11 0.13 0.15
0.90 0.91 0.80 0.74 0.72 0.72 0.75 0.64 0.63 0.62 0.56 0.53 0.50 0.42 0.35 0.36 0.35 0.29 0.20 0.16 0.17 0.17 0.16 0.15 0.15 0.16 0.12 0.07 0.05 0.04 0.02 0.01 0.01 0.01 0.02 0.02 0.04 0.05 0.06 0.08 0.10 0.11 0.12
0.90 0.91 0.91 0.87 0.82 0.80 0.78 0.72 0.72 0.67 0.61 0.53 0.49 0.41 0.39 0.40 0.36 0.29 0.22 0.17 0.18 0.18 0.18 0.17 0.17 0.15 0.11 0.07 0.06 0.05 0.04 0.03 0.03 0.02 0.02 0.02 0.04 0.06 0.08 0.10 0.09 0.09 0.10
1.07 0.96 0.91 0.89 0.96 0.91 0.83 0.76 0.70 0.61 0.60 0.60 0.56 0.48 0.44 0.48 0.47 0.42 0.30 0.22 0.21 0.19 0.19 0.19 0.18 0.14 0.11 0.10 0.09 0.06 0.06 0.06 0.04 0.03 0.03 0.02 0.03 0.07 0.11 0.12 0.10 0.10 0.11
1.33 1.15 1.07 1.01 1.02 1.00 0.91 0.82 0.75 0.63 0.55 0.55 0.55 0.58 0.54 0.47 0.41 0.41 0.34 0.26 0.24 0.22 0.22 0.21 0.18 0.17 0.15 0.13 0.12 0.12 0.10 0.08 0.07 0.06 0.05 0.04 0.04 0.07 0.11 0.14 0.12 0.12 0.13
1.45 1.39 1.28 1.18 1.11 1.09 1.04 0.90 0.77 0.71 0.60 0.53 0.56 0.59 0.57 0.48 0.42 0.39 0.33 0.30 0.27 0.27 0.25 0.24 0.21 0.19 0.19 0.20 0.18 0.15 0.14 0.12 0.12 0.11 0.10 0.08 0.04 0.04 0.09 0.14 0.16 0.18 0.23
1.40 1.46 1.42 1.37 1.25 1.13 1.07 0.96 0.84 0.77 0.69 0.62 0.60 0.60 0.60 0.57 0.51 0.47 0.40 0.35 0.31 0.30 0.30 0.30 0.29 0.25 0.20 0.17 0.16 0.15 0.14 0.13 0.11 0.10 0.10 0.08 0.05 0.04 0.06 0.11 0.17 0.25 0.33
1.46 1.55 1.52 1.53 1.59 1.36 1.19 1.11 0.99 0.85 0.79 0.72 0.66 0.61 0.58 0.56 0.58 0.55 0.50 0.42 0.36 0.38 0.38 0.38 0.38 0.38 0.32 0.24 0.19 0.16 0.14 0.13 0.11 0.10 0.09 0.08 0.06 0.05 0.05 0.09 0.16 0.23 0.30
1.57 1.59 1.60 1.49 1.61 1.63 1.46 1.29 1.14 0.99 0.87 0.79 0.76 0.71 0.66 0.60 0.62 0.64 0.61 0.57 0.51 0.48 0.46 0.45 0.43 0.40 0.36 0.29 0.23 0.20 0.18 0.17 0.14 0.13 0.13 0.10 0.09 0.07 0.06 0.07 0.11 0.17 0.25
1.62 1.60 1.70 1.64 1.61 1.69 1.67 1.52 1.41 1.29 1.11 0.97 0.90 0.82 0.79 0.76 0.75 0.74 0.67 0.68 0.68 0.64 0.55 0.50 0.47 0.44 0.43 0.38 0.34 0.33 0.29 0.23 0.19 0.17 0.14 0.12 0.11 0.11 0.09 0.08 0.08 0.10 0.15
1.67 1.72 1.79 1.88 1.82 1.89 2.05 1.93 1.70 1.56 1.44 1.29 1.12 1.06 1.03 0.95 0.92 0.88 0.82 0.77 0.79 0.75 0.66 0.59 0.52 0.47 0.44 0.46 0.46 0.41 0.35 0.30 0.27 0.24 0.20 0.17 0.16 0.17 0.18 0.18 0.16 0.14 0.13
1.51 1.67 1.68 1.78 1.89 1.97 2.03 1.94 1.72 1.55 1.49 1.42 1.31 1.26 1.19 1.13 1.08 1.00 0.93 0.90 0.89 0.84 0.77 0.74 0.67 0.58 0.54 0.56 0.56 0.47 0.37 0.32 0.27 0.25 0.26 0.25 0.22 0.21 0.22 0.24 0.23 0.18 0.15
1.28 1.39 1.50 1.58 1.70 1.79 1.83 1.81 1.80 1.84 1.71 1.56 1.43 1.33 1.28 1.25 1.20 1.10 1.04 1.01 0.98 0.94 0.86 0.84 0.87 0.81 0.71 0.70 0.72 0.72 0.58 0.44 0.33 0.28 0.28 0.27 0.25 0.24 0.23 0.22 0.22 0.22 0.22
1.06 1.17 1.27 1.39 1.49 1.52 1.70 1.86 1.88 1.91 1.84 1.60 1.39 1.25 1.29 1.38 1.39 1.26 1.17 1.17 1.16 1.13 1.05 0.99 0.98 0.96 0.92 0.87 0.87 0.96 0.83 0.60 0.43 0.34 0.31 0.30 0.29 0.29 0.28 0.27 0.25 0.26 0.25
0.86 1.00 1.12 1.24 1.34 1.37 1.52 1.61 1.56 1.45 1.41 1.33 1.28 1.30 1.35 1.40 1.46 1.43 1.39 1.33 1.29 1.28 1.22 1.27 1.31 1.23 1.16 1.03 0.95 0.90 0.88 0.75 0.71 0.55 0.39 0.34 0.31 0.29 0.29 0.28 0.28 0.27 0.27
0.72 0.78 0.92 1.11 1.18 1.22 1.29 1.36 1.45 1.41 1.34 1.35 1.35 1.30 1.26 1.24 1.33 1.41 1.44 1.43 1.31 1.23 1.19 1.22 1.28 1.33 1.26 1.18 1.11 1.05 1.02 0.91 0.82 0.79 0.59 0.42 0.39 0.35 0.34 0.34 0.35 0.37 0.39
0.65 0.62 0.73 0.87 1.07 1.15 1.18 1.24 1.31 1.30 1.23 1.22 1.26 1.27 1.28 1.21 1.16 1.19 1.28 1.29 1.31 1.28 1.22 1.24 1.32 1.39 1.40 1.34 1.26 1.16 1.10 1.03 0.89 0.90 0.85 0.65 0.57 0.50 0.48 0.49 0.50 0.51 0.52

GEFSSE_prec_meanprecacc_174.txt.gz
Total_Precipitation_Accumulation
0.06 0.11 0.25 0.28 0.28 0.26 0.27 0.24 0.24 0.22 0.21 0.22 0.24 0.26 0.26 0.26 0.24 0.22 0.20 0.22 0.28 0.37 0.45 0.48 0.46 0.41 0.36 0.30 0.18 0.11 0.09 0.12 0.08 0.06 0.06 0.06 0.08 0.10 0.09 0.07 0.07 0.11 0.16
0.06 0.11 0.23 0.28 0.30 0.31 0.30 0.26 0.23 0.19 0.19 0.25 0.29 0.27 0.27 0.28 0.27 0.26 0.27 0.30 0.32 0.37 0.44 0.47 0.46 0.36 0.28 0.20 0.12 0.08 0.07 0.04 0.02 0.01 0.01 0.02 0.04 0.06 0.06 0.06 0.07 0.11 0.15
0.05 0.11 0.21 0.30 0.34 0.33 0.29 0.24 0.19 0.18 0.20 0.26 0.31 0.30 0.29 0.29 0.29 0.28 0.29 0.30 0.33 0.37 0.35 0.34 0.33 0.24 0.17 0.10 0.07 0.05 0.04 0.02 0.01 0.01 0.02 0.04 0.05 0.08 0.08 0.08 0.11 0.14 0.15
0.08 0.12 0.20 0.32 0.42 0.38 0.32 0.25 0.21 0.22 0.24 0.28 0.34 0.34 0.36 0.33 0.30 0.30 0.27 0.26 0.29 0.27 0.25 0.23 0.19 0.13 0.08 0.06 0.05 0.04 0.02 0.01 0.01 0.01 0.03 0.05 0.06 0.11 0.12 0.12 0.13 0.14 0.14
0.13 0.16 0.24 0.35 0.50 0.48 0.37 0.28 0.24 0.25 0.28 0.33 0.37 0.38 0.43 0.39 0.37 0.34 0.28 0.24 0.23 0.19 0.17 0.15 0.11 0.07 0.04 0.04 0.04 0.04 0.02 0.01 0.01 0.01 0.03 0.06 0.09 0.14 0.15 0.14 0.14 0.14 0.14
0.18 0.22 0.31 0.40 0.54 0.59 0.46 0.35 0.28 0.27 0.31 0.37 0.42 0.43 0.47 0.48 0.45 0.38 0.27 0.21 0.18 0.14 0.13 0.13 0.11 0.06 0.03 0.03 0.03 0.03 0.03 0.01 0.01 0.01 0.02 0.05 0.09 0.17 0.18 0.16 0.16 0.17 0.19
0.20 0.32 0.43 0.50 0.59 0.68 0.58 0.46 0.39 0.36 0.37 0.39 0.43 0.46 0.50 0.54 0.54 0.45 0.27 0.19 0.15 0.14 0.12 0.11 0.11 0.07 0.03 0.03 0.04 0.03 0.04 0.02 0.01 0.02 0.03 0.04 0.11 0.21 0.20 0.17 0.17 0.16 0.16
0.28 0.37 0.58 0.72 0.76 0.83 0.77 0.60 0.51 0.47 0.46 0.46 0.46 0.48 0.51 0.55 0.57 0.53 0.33 0.20 0.15 0.14 0.13 0.12 0.11 0.09 0.05 0.05 0.04 0.04 0.04 0.02 0.02 0.02 0.02 0.04 0.09 0.14 0.13 0.11 0.10 0.12 0.13
0.49 0.46 0.58 0.76 0.87 0.93 0.91 0.75 0.68 0.60 0.54 0.54 0.57 0.56 0.50 0.45 0.48 0.48 0.35 0.23 0.19 0.18 0.17 0.17 0.16 0.15 0.10 0.07 0.06 0.05 0.03 0.02 0.01 0.01 0.01 0.03 0.06 0.09 0.08 0.09 0.11 0.13 0.15
0.79 0.70 0.65 0.73 0.82 0.96 1.02 0.79 0.71 0.66 0.60 0.60 0.58 0.51 0.41 0.36 0.37 0.38 0.28 0.22 0.20 0.20 0.18 0.17 0.17 0.17 0.14 0.10 0.08 0.06 0.03 0.02 0.01 0.01 0.01 0.02 0.05 0.07 0.08 0.09 0.12 0.14 0.16
1.03 0.98 0.86 0.81 0.80 0.87 0.99 0.86 0.77 0.72 0.63 0.59 0.56 0.46 0.39 0.38 0.37 0.30 0.21 0.16 0.19 0.20 0.18 0.17 0.17 0.18 0.14 0.10 0.09 0.07 0.06 0.03 0.02 0.02 0.02 0.02 0.04 0.06 0.08 0.10 0.11 0.12 0.13
1.08 1.03 0.99 0.95 0.89 0.91 0.95 0.92 0.88 0.76 0.68 0.59 0.55 0.47 0.44 0.43 0.39 0.31 0.23 0.17 0.19 0.20 0.21 0.20 0.19 0.17 0.12 0.09 0.09 0.09 0.08 0.06 0.05 0.04 0.03 0.03 0.04 0.07 0.11 0.13 0.12 0.11 0.11
1.30 1.14 1.04 1.00 1.06 0.99 0.94 0.93 0.87 0.73 0.68 0.65 0.62 0.54 0.50 0.53 0.51 0.46 0.33 0.24 0.23 0.21 0.21 0.20 0.19 0.15 0.12 0.11 0.11 0.09 0.10 0.10 0.09 0.07 0.05 0.04 0.05 0.10 0.15 0.16 0.13 0.13 0.13
1.56 1.38 1.24 1.17 1.17 1.10 1.02 0.98 0.94 0.78 0.65 0.61 0.61 0.63 0.59 0.53 0.46 0.45 0.38 0.28 0.26 0.24 0.23 0.22 0.19 0.17 0.16 0.14 0.13 0.14 0.13 0.12 0.11 0.10 0.09 0.07 0.07 0.11 0.16 0.18 0.17 0.16 0.17
1.67 1.63 1.47 1.34 1.29 1.22 1.17 1.07 0.97 0.87 0.71 0.60 0.61 0.64 0.62 0.53 0.47 0.44 0.38 0.34 0.30 0.29 0.27 0.26 0.23 0.20 0.20 0.21 0.19 0.17 0.16 0.15 0.14 0.15 0.15 0.12 0.08 0.08 0.12 0.17 0.20 0.23 0.28
1.57 1.68 1.63 1.56 1.43 1.30 1.23 1.14 1.04 0.98 0.83 0.71 0.66 0.65 0.65 0.62 0.56 0.51 0.42 0.37 0.33 0.32 0.31 0.32 0.32 0.27 0.22 0.19 0.17 0.16 0.16 0.14 0.13 0.13 0.13 0.13 0.10 0.08 0.09 0.14 0.21 0.29 0.38
1.57 1.69 1.72 1.74 1.79 1.53 1.35 1.29 1.18 1.06 0.99 0.88 0.75 0.68 0.65 0.64 0.65 0.61 0.54 0.44 0.37 0.40 0.40 0.39 0.40 0.39 0.34 0.26 0.20 0.18 0.16 0.15 0.13 0.11 0.11 0.10 0.10 0.08 0.08 0.14 0.22 0.28 0.35
1.67 1.69 1.72 1.61 1.75 1.80 1.63 1.45 1.30 1.15 1.05 0.99 0.90 0.80 0.74 0.69 0.71 0.72 0.67 0.62 0.55 0.50 0.48 0.46 0.44 0.42 0.37 0.30 0.24 0.22 0.20 0.19 0.17 0.15 0.15 0.12 0.10 0.08 0.07 0.09 0.14 0.21 0.29
1.72 1.69 1.77 1.70 1.68 1.79 1.81 1.66 1.54 1.41 1.24 1.13 1.09 0.94 0.86 0.85 0.85 0.85 0.77 0.76 0.75 0.68 0.57 0.51 0.48 0.45 0.44 0.40 0.36 0.35 0.31 0.25 0.21 0.19 0.17 0.13 0.12 0.12 0.10 0.09 0.11 0.13 0.19
1.77 1.80 1.85 1.93 1.86 1.96 2.15 2.06 1.83 1.68 1.58 1.44 1.28 1.22 1.11 1.01 0.98 0.95 0.92 0.87 0.86 0.81 0.71 0.61 0.53 0.48 0.45 0.48 0.49 0.43 0.38 0.33 0.30 0.27 0.22 0.19 0.17 0.18 0.19 0.20 0.19 0.17 0.16
1.55 1.70 1.71 1.81 1.91 2.00 2.08 2.01 1.81 1.64 1.59 1.54 1.45 1.41 1.30 1.19 1.13 1.06 1.00 0.99 0.97 0.90 0.83 0.78 0.70 0.60 0.55 0.57 0.58 0.49 0.39 0.34 0.30 0.28 0.29 0.28 0.24 0.22 0.23 0.25 0.26 0.23 0.19
1.30 1.40 1.52 1.60 1.71 1.80 1.85 1.85 1.85 1.90 1.76 1.61 1.50 1.41 1.37 1.32 1.24 1.14 1.09 1.07 1.06 1.00 0.91 0.88 0.91 0.84 0.74 0.72 0.74 0.74 0.60 0.46 0.35 0.31 0.31 0.30 0.27 0.26 0.25 0.24 0.24 0.24 0.24
1.06 1.17 1.28 1.41 1.50 1.53 1.72 1.89 1.93 1.96 1.88 1.64 1.42 1.28 1.33 1.43 1.43 1.30 1.20 1.21 1.21 1.19 1.10 1.03 1.02 1.00 0.96 0.90 0.90 1.00 0.87 0.63 0.46 0.36 0.34 0.33 0.31 0.31 0.30 0.29 0.27 0.27 0.26
0.86 1.01 1.13 1.26 1.36 1.39 1.54 1.63 1.61 1.50 1.45 1.37 1.31 1.33 1.37 1.43 1.49 1.46 1.42 1.36 1.32 1.31 1.27 1.32 1.36 1.27 1.19 1.06 0.99 0.94 0.92 0.79 0.75 0.58 0.42 0.39 0.36 0.33 0.32 0.30 0.30 0.29 0.28
0.72 0.78 0.93 1.13 1.20 1.24 1.31 1.38 1.48 1.45 1.39 1.41 1.40 1.33 1.28 1.25 1.34 1.43 1.46 1.45 1.33 1.25 1.21 1.25 1.32 1.37 1.29 1.20 1.14 1.08 1.06 0.94 0.85 0.82 0.61 0.45 0.43 0.40 0.39 0.38 0.39 0.40 0.41
0.65 0.62 0.73 0.88 1.09 1.17 1.20 1.26 1.33 1.32 1.26 1.26 1.31 1.31 1.29 1.22 1.17 1.20 1.28 1.30 1.32 1.29 1.23 1.25 1.33 1.41 1.41 1.36 1.28 1.18 1.13 1.06 0.92 0.93 0.87 0.67 0.59 0.53 0.53 0.54 0.55 0.55 0.55

GEFSSE_prec_meanprecacc_180.txt.gz
Total_Precipitation_Accumulation
0.06 0.12 0.28 0.33 0.33 0.30 0.30 0.26 0.25 0.24 0.22 0.23 0.25 0.27 0.27 0.26 0.24 0.23 0.21 0.23 0.29 0.38 0.45 0.49 0.47 0.41 0.37 0.31 0.19 0.11 0.10 0.12 0.08 0.06 0.06 0.07 0.09 0.10 0.09 0.07 0.08 0.12 0.17
0.06 0.12 0.25 0.33 0.36 0.36 0.34 0.29 0.25 0.21 0.21 0.26 0.30 0.28 0.28 0.28 0.27 0.26 0.28 0.31 0.33 0.38 0.44 0.48 0.48 0.37 0.29 0.21 0.12 0.08 0.07 0.04 0.02 0.01 0.01 0.02 0.04 0.06 0.06 0.06 0.08 0.12 0.15
0.06 0.12 0.23 0.33 0.40 0.40 0.35 0.29 0.23 0.21 0.22 0.27 0.32 0.32 0.31 0.30 0.29 0.28 0.29 0.31 0.34 0.38 0.37 0.35 0.34 0.26 0.18 0.12 0.08 0.06 0.05 0.02 0.01 0.01 0.02 0.04 0.05 0.08 0.08 0.08 0.11 0.14 0.15
0.08 0.13 0.21 0.35 0.48 0.44 0.39 0.31 0.27 0.26 0.27 0.31 0.35 0.36 0.37 0.34 0.31 0.31 0.28 0.27 0.30 0.28 0.26 0.25 0.20 0.14 0.10 0.08 0.06 0.05 0.03 0.01 0.01 0.01 0.03 0.05 0.06 0.12 0.12 0.12 0.13 0.14 0.15
0.13 0.16 0.25 0.36 0.55 0.54 0.43 0.35 0.30 0.31 0.33 0.38 0.40 0.40 0.44 0.40 0.39 0.36 0.29 0.25 0.24 0.19 0.17 0.16 0.12 0.08 0.06 0.06 0.06 0.05 0.03 0.02 0.01 0.01 0.03 0.06 0.09 0.15 0.16 0.15 0.14 0.15 0.14
0.18 0.23 0.31 0.41 0.58 0.67 0.54 0.43 0.36 0.34 0.37 0.43 0.46 0.46 0.49 0.49 0.47 0.39 0.28 0.22 0.18 0.15 0.14 0.13 0.12 0.07 0.04 0.04 0.04 0.05 0.04 0.03 0.01 0.02 0.03 0.05 0.10 0.17 0.19 0.16 0.16 0.17 0.19
0.21 0.33 0.44 0.51 0.63 0.79 0.73 0.59 0.52 0.48 0.46 0.48 0.51 0.51 0.54 0.57 0.56 0.47 0.28 0.19 0.16 0.14 0.12 0.11 0.12 0.08 0.04 0.04 0.05 0.05 0.05 0.04 0.03 0.03 0.03 0.05 0.11 0.21 0.20 0.17 0.17 0.16 0.16
0.29 0.38 0.59 0.75 0.80 0.96 0.97 0.76 0.66 0.59 0.58 0.58 0.57 0.57 0.58 0.59 0.60 0.55 0.35 0.21 0.15 0.15 0.14 0.13 0.12 0.10 0.06 0.06 0.06 0.06 0.06 0.04 0.03 0.03 0.03 0.04 0.09 0.15 0.13 0.11 0.11 0.12 0.13
0.51 0.47 0.60 0.79 0.91 1.03 1.11 0.91 0.82 0.71 0.63 0.62 0.65 0.66 0.58 0.52 0.52 0.50 0.36 0.24 0.20 0.19 0.19 0.18 0.17 0.16 0.11 0.09 0.08 0.07 0.05 0.03 0.02 0.03 0.02 0.03 0.06 0.10 0.09 0.10 0.12 0.14 0.15
0.83 0.74 0.68 0.78 0.88 1.05 1.16 0.94 0.81 0.75 0.68 0.66 0.65 0.59 0.48 0.43 0.44 0.42 0.30 0.23 0.21 0.21 0.20 0.19 0.18 0.18 0.15 0.12 0.10 0.07 0.05 0.03 0.03 0.03 0.03 0.03 0.05 0.07 0.09 0.12 0.14 0.15 0.17
1.09 1.04 0.92 0.87 0.86 0.95 1.09 0.99 0.89 0.79 0.69 0.65 0.63 0.54 0.46 0.45 0.44 0.37 0.25 0.19 0.20 0.22 0.20 0.18 0.18 0.19 0.15 0.11 0.10 0.09 0.08 0.07 0.06 0.05 0.04 0.04 0.05 0.07 0.11 0.14 0.15 0.14 0.15
1.15 1.10 1.05 1.01 0.95 0.98 1.03 1.04 1.00 0.85 0.74 0.64 0.60 0.54 0.51 0.49 0.44 0.36 0.28 0.22 0.22 0.23 0.25 0.22 0.20 0.18 0.13 0.10 0.11 0.11 0.11 0.08 0.08 0.07 0.06 0.05 0.08 0.12 0.16 0.18 0.15 0.13 0.13
1.41 1.24 1.13 1.09 1.12 1.06 1.03 1.03 0.99 0.81 0.74 0.72 0.66 0.58 0.56 0.59 0.57 0.50 0.37 0.28 0.28 0.26 0.26 0.24 0.21 0.17 0.13 0.12 0.12 0.11 0.12 0.12 0.11 0.10 0.08 0.07 0.11 0.18 0.23 0.21 0.17 0.15 0.15
1.73 1.52 1.38 1.31 1.27 1.19 1.13 1.09 1.04 0.84 0.70 0.68 0.68 0.69 0.64 0.58 0.51 0.50 0.42 0.32 0.30 0.29 0.29 0.27 0.21 0.19 0.17 0.15 0.14 0.15 0.14 0.14 0.13 0.13 0.12 0.11 0.10 0.16 0.23 0.26 0.23 0.20 0.20
1.86 1.81 1.64 1.50 1.44 1.35 1.31 1.21 1.07 0.92 0.74 0.64 0.65 0.70 0.68 0.58 0.51 0.48 0.42 0.39 0.33 0.32 0.30 0.31 0.26 0.23 0.22 0.23 0.21 0.18 0.17 0.16 0.16 0.16 0.16 0.16 0.12 0.14 0.20 0.27 0.30 0.29 0.33
1.79 1.93 1.83 1.75 1.59 1.44 1.38 1.31 1.15 1.04 0.87 0.75 0.70 0.68 0.69 0.67 0.60 0.55 0.47 0.42 0.37 0.35 0.34 0.35 0.35 0.30 0.25 0.23 0.21 0.20 0.19 0.17 0.15 0.14 0.14 0.16 0.15 0.16 0.18 0.23 0.32 0.39 0.45
1.79 1.95 1.97 1.98 1.99 1.68 1.50 1.48 1.32 1.14 1.05 0.93 0.81 0.72 0.68 0.69 0.71 0.66 0.60 0.49 0.42 0.44 0.43 0.42 0.42 0.41 0.36 0.28 0.24 0.21 0.19 0.19 0.16 0.14 0.13 0.13 0.13 0.12 0.13 0.20 0.28 0.35 0.42
1.87 1.93 1.97 1.85 1.98 1.97 1.78 1.65 1.47 1.27 1.14 1.06 0.97 0.85 0.79 0.75 0.76 0.76 0.72 0.68 0.60 0.54 0.52 0.50 0.46 0.42 0.38 0.32 0.27 0.24 0.22 0.21 0.19 0.18 0.17 0.13 0.12 0.09 0.09 0.13 0.19 0.25 0.33
1.94 1.91 2.01 1.93 1.90 1.97 1.98 1.87 1.71 1.55 1.37 1.23 1.17 1.01 0.92 0.91 0.91 0.88 0.80 0.80 0.81 0.74 0.62 0.58 0.54 0.48 0.46 0.41 0.37 0.36 0.33 0.27 0.23 0.21 0.18 0.15 0.14 0.13 0.11 0.11 0.14 0.17 0.22
1.99 2.08 2.09 2.14 2.09 2.19 2.33 2.26 2.05 1.84 1.70 1.54 1.36 1.31 1.18 1.07 1.04 0.99 0.95 0.91 0.91 0.86 0.76 0.67 0.59 0.55 0.50 0.50 0.50 0.44 0.39 0.33 0.31 0.28 0.23 0.20 0.18 0.19 0.21 0.21 0.21 0.20 0.19
1.72 1.91 1.91 2.00 2.13 2.23 2.27 2.18 2.01 1.84 1.71 1.63 1.51 1.47 1.38 1.26 1.19 1.09 1.03 1.02 1.01 0.96 0.87 0.83 0.74 0.64 0.60 0.61 0.60 0.49 0.40 0.35 0.31 0.29 0.30 0.29 0.25 0.23 0.24 0.27 0.28 0.26 0.21
1.38 1.51 1.60 1.68 1.82 1.94 1.98 1.98 2.01 2.06 1.89 1.71 1.57 1.48 1.45 1.39 1.30 1.18 1.11 1.10 1.08 1.05 0.96 0.92 0.94 0.87 0.76 0.75 0.76 0.76 0.61 0.47 0.35 0.31 0.32 0.31 0.29 0.28 0.27 0.25 0.25 0.26 0.26
1.09 1.23 1.33 1.45 1.54 1.57 1.77 1.96 2.03 2.08 2.00 1.73 1.49 1.36 1.42 1.52 1.50 1.34 1.23 1.23 1.23 1.22 1.15 1.07 1.06 1.02 0.97 0.91 0.91 1.02 0.88 0.65 0.47 0.37 0.35 0.34 0.33 0.33 0.31 0.31 0.29 0.29 0.28
0.88 1.04 1.16 1.28 1.38 1.41 1.56 1.66 1.66 1.57 1.52 1.43 1.38 1.41 1.46 1.54 1.58 1.52 1.47 1.39 1.35 1.35 1.32 1.38 1.39 1.30 1.21 1.07 1.00 0.95 0.93 0.80 0.77 0.59 0.43 0.40 0.38 0.36 0.34 0.32 0.31 0.30 0.30
0.73 0.80 0.96 1.15 1.22 1.25 1.32 1.40 1.51 1.49 1.43 1.45 1.46 1.42 1.38 1.35 1.44 1.50 1.50 1.48 1.36 1.28 1.25 1.31 1.38 1.42 1.32 1.22 1.14 1.09 1.06 0.95 0.86 0.84 0.63 0.47 0.44 0.42 0.41 0.41 0.42 0.42 0.43
0.65 0.63 0.75 0.90 1.11 1.19 1.22 1.28 1.35 1.35 1.30 1.30 1.37 1.38 1.39 1.33 1.27 1.28 1.33 1.32 1.34 1.31 1.25 1.28 1.37 1.45 1.45 1.38 1.29 1.19 1.14 1.07 0.94 0.96 0.90 0.68 0.60 0.54 0.54 0.56 0.58 0.59 0.58

GEFSSE_prec_meanprecacc_186.txt.gz
Total_Precipitation_Accumulation
0.06 0.12 0.29 0.33 0.34 0.32 0.32 0.29 0.28 0.27 0.25 0.25 0.27 0.29 0.28 0.27 0.25 0.24 0.22 0.24 0.30 0.38 0.46 0.49 0.47 0.42 0.38 0.32 0.19 0.11 0.10 0.12 0.08 0.07 0.06 0.07 0.09 0.10 0.09 0.08 0.09 0.13 0.17
0.06 0.12 0.25 0.33 0.37 0.38 0.37 0.33 0.28 0.25 0.25 0.29 0.32 0.30 0.29 0.29 0.28 0.27 0.29 0.32 0.34 0.39 0.45 0.49 0.49 0.38 0.29 0.22 0.13 0.08 0.08 0.04 0.02 0.01 0.01 0.02 0.04 0.06 0.07 0.06 0.08 0.13 0.16
0.06 0.12 0.23 0.34 0.41 0.41 0.37 0.32 0.27 0.25 0.27 0.31 0.35 0.33 0.32 0.32 0.31 0.29 0.30 0.32 0.35 0.39 0.38 0.37 0.35 0.26 0.19 0.13 0.09 0.07 0.05 0.02 0.01 0.01 0.02 0.04 0.05 0.08 0.08 0.08 0.11 0.14 0.16
0.10 0.13 0.22 0.36 0.49 0.46 0.41 0.34 0.30 0.31 0.33 0.36 0.40 0.38 0.39 0.36 0.33 0.33 0.30 0.29 0.31 0.30 0.28 0.26 0.21 0.15 0.11 0.09 0.07 0.06 0.04 0.02 0.01 0.01 0.03 0.05 0.07 0.12 0.13 0.12 0.13 0.15 0.15
0.16 0.18 0.26 0.37 0.56 0.56 0.46 0.38 0.33 0.35 0.40 0.44 0.46 0.45 0.47 0.42 0.41 0.38 0.32 0.28 0.27 0.21 0.19 0.17 0.13 0.08 0.06 0.06 0.07 0.06 0.05 0.03 0.02 0.02 0.03 0.07 0.10 0.16 0.16 0.15 0.15 0.15 0.15
0.21 0.26 0.33 0.42 0.60 0.69 0.57 0.47 0.39 0.39 0.45 0.51 0.56 0.57 0.55 0.52 0.49 0.44 0.32 0.25 0.21 0.16 0.14 0.14 0.13 0.08 0.05 0.05 0.05 0.05 0.06 0.05 0.03 0.02 0.03 0.06 0.10 0.18 0.19 0.16 0.16 0.17 0.19
0.25 0.37 0.47 0.54 0.66 0.83 0.76 0.64 0.56 0.52 0.53 0.57 0.62 0.61 0.61 0.62 0.60 0.52 0.33 0.23 0.18 0.15 0.13 0.12 0.12 0.08 0.05 0.05 0.05 0.05 0.06 0.06 0.05 0.05 0.05 0.06 0.12 0.21 0.21 0.18 0.17 0.17 0.16
0.35 0.44 0.63 0.79 0.84 1.00 1.01 0.81 0.71 0.65 0.64 0.66 0.65 0.64 0.66 0.66 0.65 0.60 0.39 0.24 0.17 0.17 0.16 0.14 0.14 0.11 0.08 0.07 0.07 0.07 0.07 0.05 0.04 0.05 0.05 0.06 0.10 0.15 0.14 0.11 0.11 0.13 0.14
0.58 0.55 0.66 0.84 0.97 1.08 1.16 0.96 0.87 0.77 0.69 0.69 0.71 0.72 0.65 0.58 0.59 0.55 0.41 0.27 0.22 0.21 0.21 0.19 0.18 0.17 0.12 0.10 0.09 0.07 0.05 0.04 0.03 0.05 0.04 0.05 0.07 0.11 0.10 0.11 0.14 0.16 0.17
0.92 0.84 0.76 0.84 0.95 1.12 1.22 0.98 0.85 0.80 0.74 0.73 0.71 0.64 0.53 0.48 0.49 0.47 0.35 0.27 0.24 0.24 0.23 0.20 0.19 0.19 0.16 0.13 0.10 0.08 0.06 0.04 0.03 0.04 0.05 0.05 0.06 0.09 0.12 0.14 0.16 0.18 0.19
1.21 1.17 1.06 0.98 0.94 1.01 1.14 1.03 0.92 0.84 0.76 0.72 0.69 0.59 0.51 0.49 0.49 0.41 0.30 0.23 0.24 0.25 0.24 0.21 0.19 0.19 0.15 0.11 0.10 0.09 0.09 0.08 0.07 0.08 0.08 0.07 0.07 0.10 0.14 0.18 0.19 0.18 0.17
1.26 1.23 1.21 1.16 1.06 1.06 1.08 1.08 1.04 0.90 0.81 0.71 0.64 0.57 0.56 0.54 0.49 0.40 0.33 0.27 0.28 0.28 0.29 0.26 0.22 0.19 0.15 0.12 0.12 0.12 0.11 0.09 0.10 0.10 0.09 0.09 0.10 0.16 0.21 0.23 0.19 0.17 0.15
1.51 1.37 1.27 1.28 1.25 1.15 1.09 1.07 1.04 0.87 0.80 0.79 0.72 0.62 0.59 0.64 0.62 0.56 0.43 0.33 0.32 0.30 0.30 0.28 0.24 0.19 0.16 0.14 0.13 0.11 0.13 0.13 0.13 0.12 0.11 0.10 0.13 0.21 0.26 0.25 0.20 0.17 0.16
1.83 1.66 1.52 1.52 1.44 1.29 1.19 1.14 1.09 0.90 0.76 0.74 0.74 0.74 0.67 0.63 0.57 0.55 0.48 0.37 0.34 0.32 0.33 0.33 0.26 0.23 0.21 0.18 0.16 0.15 0.15 0.15 0.15 0.16 0.14 0.13 0.11 0.17 0.25 0.29 0.26 0.24 0.23
1.98 1.95 1.78 1.71 1.65 1.50 1.41 1.27 1.12 0.99 0.80 0.70 0.70 0.75 0.72 0.63 0.57 0.53 0.48 0.44 0.37 0.35 0.34 0.36 0.32 0.29 0.27 0.27 0.24 0.20 0.18 0.17 0.17 0.18 0.19 0.19 0.14 0.16 0.23 0.30 0.35 0.37 0.39
1.92 2.07 2.00 1.96 1.81 1.64 1.51 1.40 1.21 1.11 0.94 0.81 0.75 0.73 0.74 0.72 0.66 0.62 0.53 0.48 0.42 0.38 0.37 0.39 0.41 0.36 0.31 0.28 0.27 0.24 0.21 0.19 0.17 0.16 0.16 0.18 0.18 0.19 0.23 0.28 0.36 0.47 0.54
1.90 2.09 2.14 2.21 2.22 1.92 1.69 1.59 1.40 1.24 1.12 0.98 0.85 0.76 0.72 0.73 0.77 0.73 0.66 0.55 0.47 0.48 0.45 0.45 0.46 0.47 0.41 0.32 0.28 0.27 0.25 0.24 0.21 0.18 0.17 0.16 0.15 0.14 0.18 0.26 0.34 0.41 0.49
1.99 2.05 2.14 2.12 2.22 2.20 1.99 1.78 1.57 1.39 1.23 1.13 1.02 0.89 0.81 0.77 0.81 0.83 0.77 0.74 0.66 0.58 0.55 0.53 0.50 0.46 0.42 0.35 0.30 0.28 0.27 0.27 0.24 0.23 0.23 0.18 0.15 0.12 0.12 0.18 0.25 0.30 0.37
2.06 2.07 2.20 2.18 2.17 2.20 2.18 2.01 1.83 1.68 1.47 1.31 1.24 1.07 0.96 0.95 0.95 0.95 0.86 0.86 0.87 0.78 0.67 0.62 0.59 0.52 0.49 0.44 0.40 0.39 0.36 0.32 0.27 0.24 0.21 0.18 0.17 0.16 0.15 0.15 0.18 0.21 0.25
2.10 2.22 2.28 2.42 2.40 2.44 2.51 2.39 2.16 1.98 1.82 1.64 1.45 1.37 1.23 1.11 1.09 1.05 1.01 0.96 0.98 0.93 0.80 0.72 0.65 0.59 0.54 0.54 0.54 0.46 0.40 0.35 0.33 0.30 0.25 0.21 0.20 0.21 0.23 0.24 0.24 0.24 0.23
1.79 2.01 2.04 2.23 2.43 2.50 2.47 2.33 2.14 1.97 1.85 1.74 1.63 1.57 1.45 1.31 1.24 1.15 1.08 1.07 1.07 1.02 0.91 0.86 0.80 0.71 0.65 0.66 0.64 0.51 0.41 0.35 0.31 0.29 0.31 0.30 0.26 0.24 0.26 0.29 0.31 0.30 0.25
1.43 1.57 1.69 1.82 2.04 2.20 2.22 2.15 2.16 2.20 2.03 1.82 1.68 1.60 1.54 1.46 1.37 1.25 1.15 1.14 1.13 1.09 0.99 0.94 0.97 0.93 0.83 0.80 0.80 0.78 0.62 0.47 0.36 0.32 0.33 0.33 0.30 0.30 0.29 0.27 0.28 0.30 0.31
1.14 1.27 1.39 1.52 1.65 1.74 1.97 2.15 2.17 2.21 2.13 1.85 1.60 1.48 1.51 1.59 1.57 1.42 1.28 1.27 1.28 1.27 1.18 1.09 1.07 1.04 1.01 0.96 0.96 1.05 0.91 0.66 0.47 0.38 0.36 0.35 0.35 0.35 0.33 0.33 0.32 0.32 0.32
0.91 1.07 1.20 1.34 1.45 1.50 1.68 1.82 1.84 1.70 1.64 1.55 1.48 1.50 1.54 1.59 1.65 1.63 1.55 1.44 1.39 1.39 1.35 1.40 1.41 1.31 1.23 1.10 1.02 0.98 0.95 0.82 0.78 0.59 0.43 0.41 0.39 0.37 0.36 0.34 0.33 0.32 0.33
0.74 0.82 0.99 1.19 1.28 1.32 1.40 1.49 1.64 1.64 1.57 1.58 1.56 1.50 1.44 1.40 1.50 1.59 1.60 1.55 1.41 1.32 1.28 1.34 1.41 1.44 1.34 1.24 1.16 1.10 1.07 0.95 0.87 0.85 0.64 0.47 0.45 0.43 0.42 0.43 0.44 0.45 0.46
0.66 0.64 0.77 0.93 1.16 1.25 1.29 1.34 1.43 1.45 1.40 1.41 1.48 1.47 1.46 1.38 1.33 1.38 1.44 1.40 1.41 1.35 1.28 1.30 1.39 1.47 1.47 1.41 1.31 1.20 1.15 1.08 0.95 0.96 0.90 0.69 0.61 0.55 0.54 0.57 0.59 0.61 0.61

GEFSSE_prec_meanprecacc_192.txt.gz
Total_Precipitation_Accumulation
0.07 0.13 0.30 0.34 0.34 0.32 0.33 0.30 0.29 0.28 0.27 0.28 0.29 0.30 0.28 0.28 0.26 0.25 0.24 0.25 0.31 0.39 0.48 0.51 0.48 0.43 0.38 0.32 0.20 0.12 0.10 0.12 0.08 0.07 0.06 0.07 0.09 0.11 0.09 0.08 0.09 0.14 0.18
0.07 0.13 0.27 0.34 0.38 0.39 0.37 0.34 0.29 0.26 0.26 0.32 0.35 0.32 0.31 0.30 0.29 0.28 0.30 0.33 0.35 0.40 0.46 0.51 0.50 0.39 0.30 0.23 0.14 0.09 0.08 0.04 0.02 0.01 0.01 0.02 0.04 0.07 0.07 0.06 0.08 0.13 0.17
0.08 0.14 0.25 0.35 0.42 0.42 0.38 0.33 0.28 0.26 0.27 0.33 0.37 0.36 0.35 0.34 0.33 0.31 0.31 0.33 0.36 0.40 0.39 0.37 0.36 0.27 0.19 0.13 0.09 0.07 0.06 0.03 0.02 0.01 0.02 0.04 0.05 0.08 0.08 0.08 0.12 0.15 0.17
0.13 0.17 0.24 0.38 0.51 0.47 0.43 0.36 0.31 0.31 0.33 0.37 0.42 0.41 0.43 0.39 0.37 0.36 0.32 0.30 0.32 0.30 0.29 0.27 0.22 0.15 0.11 0.09 0.08 0.07 0.05 0.03 0.02 0.02 0.03 0.05 0.07 0.12 0.13 0.13 0.14 0.15 0.16
0.19 0.22 0.29 0.40 0.58 0.58 0.48 0.40 0.35 0.37 0.41 0.45 0.48 0.49 0.52 0.46 0.43 0.41 0.34 0.30 0.29 0.22 0.20 0.19 0.14 0.09 0.07 0.07 0.07 0.07 0.05 0.04 0.03 0.02 0.03 0.07 0.10 0.16 0.16 0.15 0.15 0.15 0.15
0.26 0.31 0.38 0.48 0.64 0.72 0.60 0.50 0.43 0.42 0.46 0.53 0.58 0.60 0.59 0.56 0.52 0.47 0.35 0.28 0.23 0.17 0.15 0.15 0.13 0.08 0.05 0.05 0.05 0.06 0.07 0.06 0.04 0.03 0.03 0.06 0.10 0.18 0.19 0.17 0.17 0.18 0.19
0.31 0.44 0.54 0.62 0.72 0.87 0.80 0.68 0.60 0.56 0.56 0.59 0.64 0.63 0.64 0.65 0.63 0.55 0.37 0.26 0.20 0.17 0.14 0.13 0.13 0.09 0.07 0.07 0.06 0.06 0.07 0.07 0.05 0.05 0.05 0.06 0.12 0.22 0.22 0.18 0.18 0.18 0.17
0.41 0.52 0.72 0.91 0.95 1.07 1.06 0.86 0.76 0.69 0.68 0.69 0.67 0.66 0.68 0.70 0.68 0.64 0.42 0.27 0.20 0.19 0.17 0.14 0.14 0.12 0.08 0.08 0.07 0.07 0.08 0.05 0.04 0.05 0.05 0.06 0.11 0.17 0.16 0.13 0.14 0.15 0.16
0.66 0.64 0.76 0.95 1.09 1.17 1.22 1.00 0.91 0.81 0.74 0.73 0.75 0.75 0.67 0.62 0.63 0.59 0.43 0.30 0.25 0.24 0.23 0.20 0.18 0.18 0.13 0.11 0.10 0.08 0.06 0.04 0.04 0.05 0.04 0.05 0.08 0.13 0.13 0.14 0.17 0.18 0.20
1.01 0.93 0.87 0.96 1.08 1.23 1.30 1.03 0.90 0.83 0.79 0.78 0.76 0.67 0.55 0.51 0.53 0.50 0.38 0.30 0.27 0.27 0.26 0.22 0.20 0.19 0.17 0.13 0.11 0.08 0.06 0.04 0.04 0.05 0.05 0.06 0.08 0.12 0.15 0.18 0.19 0.21 0.23
1.29 1.26 1.17 1.12 1.08 1.13 1.25 1.09 0.96 0.88 0.80 0.76 0.74 0.63 0.54 0.52 0.52 0.44 0.32 0.26 0.26 0.28 0.27 0.23 0.20 0.20 0.16 0.12 0.11 0.09 0.09 0.08 0.08 0.08 0.08 0.07 0.08 0.12 0.18 0.22 0.23 0.23 0.23
1.34 1.31 1.30 1.29 1.23 1.20 1.22 1.17 1.10 0.95 0.86 0.76 0.68 0.62 0.60 0.57 0.52 0.43 0.35 0.29 0.30 0.31 0.32 0.29 0.24 0.20 0.15 0.12 0.12 0.12 0.12 0.09 0.10 0.11 0.10 0.09 0.11 0.18 0.23 0.26 0.23 0.21 0.21
1.56 1.43 1.36 1.40 1.44 1.34 1.28 1.19 1.11 0.91 0.85 0.83 0.77 0.68 0.63 0.66 0.64 0.59 0.45 0.35 0.35 0.33 0.33 0.31 0.27 0.21 0.16 0.14 0.13 0.11 0.13 0.14 0.13 0.12 0.11 0.10 0.14 0.22 0.27 0.27 0.23 0.22 0.22
1.86 1.70 1.59 1.63 1.65 1.51 1.40 1.30 1.17 0.95 0.79 0.78 0.79 0.80 0.72 0.66 0.59 0.57 0.49 0.38 0.36 0.34 0.35 0.34 0.28 0.24 0.22 0.19 0.17 0.16 0.15 0.15 0.15 0.16 0.15 0.14 0.12 0.18 0.26 0.31 0.29 0.28 0.27
2.02 2.01 1.87 1.82 1.87 1.73 1.61 1.47 1.22 1.04 0.84 0.73 0.75 0.81 0.77 0.67 0.60 0.55 0.50 0.46 0.40 0.37 0.35 0.37 0.33 0.29 0.28 0.28 0.26 0.21 0.19 0.17 0.17 0.18 0.20 0.20 0.16 0.17 0.25 0.32 0.37 0.40 0.43
2.00 2.13 2.11 2.06 2.03 1.90 1.71 1.56 1.31 1.18 0.98 0.84 0.80 0.79 0.78 0.75 0.69 0.64 0.54 0.50 0.44 0.41 0.39 0.41 0.43 0.37 0.31 0.29 0.28 0.26 0.23 0.20 0.17 0.16 0.17 0.19 0.19 0.20 0.24 0.31 0.39 0.50 0.58
2.00 2.18 2.24 2.31 2.43 2.19 1.96 1.77 1.51 1.31 1.17 1.03 0.89 0.80 0.75 0.75 0.79 0.76 0.68 0.57 0.49 0.50 0.48 0.48 0.49 0.49 0.43 0.34 0.31 0.29 0.27 0.26 0.22 0.19 0.17 0.16 0.16 0.15 0.19 0.29 0.38 0.45 0.53
2.05 2.11 2.21 2.21 2.41 2.45 2.31 2.07 1.74 1.48 1.29 1.18 1.06 0.92 0.85 0.80 0.84 0.86 0.80 0.75 0.67 0.62 0.58 0.56 0.53 0.48 0.44 0.37 0.32 0.30 0.30 0.30 0.27 0.26 0.25 0.19 0.16 0.12 0.14 0.21 0.28 0.34 0.42
2.10 2.11 2.25 2.26 2.30 2.41 2.47 2.34 2.09 1.82 1.55 1.38 1.28 1.10 1.01 0.99 0.99 0.98 0.88 0.88 0.90 0.81 0.70 0.65 0.62 0.54 0.50 0.46 0.42 0.40 0.38 0.34 0.31 0.28 0.25 0.21 0.19 0.18 0.16 0.17 0.21 0.25 0.30
2.14 2.26 2.33 2.47 2.49 2.61 2.79 2.69 2.43 2.18 1.94 1.74 1.51 1.41 1.30 1.19 1.15 1.09 1.04 0.99 1.01 0.96 0.83 0.75 0.68 0.62 0.55 0.56 0.56 0.49 0.43 0.37 0.35 0.33 0.29 0.25 0.23 0.24 0.25 0.25 0.26 0.26 0.28
1.84 2.06 2.09 2.29 2.51 2.64 2.70 2.57 2.37 2.16 2.01 1.85 1.71 1.62 1.52 1.41 1.34 1.21 1.11 1.09 1.10 1.05 0.95 0.90 0.84 0.73 0.67 0.69 0.67 0.54 0.43 0.38 0.33 0.30 0.33 0.33 0.29 0.27 0.27 0.30 0.32 0.31 0.27
1.48 1.63 1.74 1.87 2.12 2.33 2.41 2.35 2.34 2.37 2.19 1.95 1.78 1.66 1.61 1.55 1.47 1.34 1.21 1.17 1.15 1.12 1.03 0.98 1.01 0.97 0.87 0.85 0.84 0.81 0.65 0.50 0.38 0.33 0.34 0.33 0.32 0.31 0.30 0.28 0.29 0.31 0.33
1.18 1.33 1.43 1.55 1.70 1.83 2.15 2.36 2.35 2.40 2.32 2.02 1.74 1.56 1.59 1.69 1.68 1.54 1.38 1.33 1.30 1.30 1.22 1.14 1.11 1.07 1.06 1.02 1.04 1.11 0.95 0.69 0.49 0.39 0.37 0.36 0.36 0.35 0.34 0.34 0.33 0.33 0.35
0.94 1.10 1.24 1.37 1.47 1.55 1.80 2.04 2.02 1.90 1.85 1.76 1.67 1.65 1.65 1.70 1.77 1.77 1.68 1.55 1.45 1.42 1.38 1.44 1.45 1.34 1.26 1.14 1.07 1.03 1.01 0.85 0.79 0.61 0.44 0.41 0.40 0.38 0.37 0.35 0.35 0.35 0.34
0.77 0.85 1.01 1.22 1.30 1.36 1.46 1.64 1.84 1.83 1.76 1.78 1.77 1.70 1.59 1.53 1.62 1.72 1.74 1.66 1.51 1.38 1.31 1.37 1.44 1.47 1.36 1.27 1.19 1.12 1.09 0.97 0.88 0.86 0.65 0.48 0.45 0.43 0.43 0.43 0.45 0.47 0.48
0.67 0.65 0.78 0.95 1.18 1.27 1.33 1.42 1.56 1.62 1.57 1.56 1.63 1.64 1.63 1.53 1.46 1.49 1.56 1.52 1.51 1.43 1.33 1.34 1.42 1.50 1.49 1.43 1.33 1.22 1.16 1.10 0.96 0.97 0.91 0.69 0.61 0.55 0.55 0.57 0.60 0.62 0.62

GEFSSE_prec_meanprecacc_198.txt.gz
Total_Precipitation_Accumulation
0.08 0.14 0.32 0.36 0.36 0.34 0.34 0.31 0.30 0.28 0.28 0.29 0.31 0.32 0.31 0.30 0.29 0.29 0.29 0.28 0.32 0.41 0.49 0.53 0.51 0.46 0.40 0.33 0.21 0.13 0.11 0.13 0.09 0.07 0.06 0.07 0.10 0.11 0.10 0.08 0.09 0.15 0.20
0.08 0.14 0.29 0.37 0.41 0.41 0.39 0.35 0.30 0.27 0.27 0.33 0.36 0.34 0.33 0.33 0.32 0.31 0.36 0.36 0.36 0.41 0.47 0.52 0.52 0.41 0.32 0.24 0.15 0.11 0.10 0.05 0.03 0.02 0.01 0.02 0.04 0.07 0.07 0.07 0.09 0.14 0.18
0.09 0.16 0.28 0.38 0.44 0.44 0.40 0.35 0.29 0.27 0.28 0.33 0.38 0.37 0.36 0.36 0.36 0.34 0.35 0.36 0.38 0.42 0.41 0.39 0.37 0.29 0.20 0.14 0.10 0.09 0.08 0.05 0.03 0.02 0.02 0.04 0.06 0.09 0.09 0.09 0.12 0.16 0.18
0.14 0.19 0.28 0.42 0.54 0.50 0.45 0.38 0.34 0.33 0.34 0.38 0.42 0.42 0.44 0.42 0.40 0.40 0.35 0.33 0.35 0.32 0.31 0.28 0.23 0.16 0.11 0.10 0.08 0.07 0.05 0.04 0.03 0.03 0.04 0.05 0.07 0.13 0.14 0.13 0.15 0.16 0.17
0.21 0.26 0.36 0.47 0.63 0.62 0.50 0.43 0.38 0.39 0.43 0.46 0.49 0.50 0.53 0.48 0.46 0.45 0.38 0.33 0.31 0.24 0.22 0.21 0.15 0.10 0.07 0.07 0.07 0.07 0.06 0.05 0.03 0.03 0.04 0.07 0.10 0.17 0.17 0.15 0.15 0.16 0.16
0.28 0.36 0.46 0.56 0.71 0.77 0.63 0.53 0.46 0.46 0.50 0.55 0.60 0.62 0.61 0.58 0.55 0.51 0.39 0.32 0.26 0.20 0.17 0.17 0.14 0.09 0.06 0.06 0.06 0.06 0.07 0.07 0.04 0.03 0.03 0.06 0.11 0.18 0.20 0.18 0.18 0.19 0.20
0.33 0.48 0.61 0.72 0.83 0.96 0.85 0.72 0.63 0.60 0.60 0.63 0.67 0.65 0.66 0.67 0.66 0.60 0.42 0.30 0.24 0.20 0.16 0.14 0.14 0.10 0.07 0.07 0.07 0.06 0.07 0.07 0.06 0.05 0.05 0.06 0.12 0.22 0.23 0.21 0.20 0.19 0.19
0.43 0.56 0.78 1.00 1.06 1.17 1.13 0.90 0.79 0.72 0.71 0.73 0.71 0.69 0.70 0.72 0.72 0.68 0.48 0.32 0.24 0.22 0.19 0.16 0.15 0.13 0.09 0.08 0.08 0.08 0.08 0.06 0.04 0.05 0.05 0.06 0.11 0.18 0.18 0.16 0.16 0.17 0.18
0.68 0.67 0.80 1.02 1.17 1.28 1.31 1.06 0.95 0.84 0.77 0.77 0.81 0.80 0.70 0.65 0.67 0.63 0.47 0.34 0.28 0.29 0.26 0.23 0.20 0.19 0.13 0.11 0.10 0.08 0.06 0.05 0.04 0.05 0.04 0.05 0.08 0.14 0.15 0.16 0.19 0.21 0.23
1.05 0.97 0.91 1.01 1.14 1.32 1.40 1.12 0.96 0.87 0.82 0.81 0.80 0.73 0.59 0.54 0.57 0.54 0.41 0.32 0.29 0.31 0.31 0.26 0.22 0.20 0.17 0.14 0.11 0.09 0.06 0.05 0.04 0.05 0.05 0.06 0.09 0.14 0.17 0.19 0.21 0.23 0.26
1.35 1.32 1.21 1.16 1.14 1.20 1.34 1.19 1.04 0.94 0.85 0.80 0.78 0.68 0.60 0.55 0.56 0.47 0.34 0.28 0.28 0.31 0.32 0.29 0.24 0.22 0.17 0.12 0.11 0.10 0.09 0.08 0.08 0.08 0.08 0.08 0.09 0.14 0.20 0.24 0.24 0.25 0.27
1.44 1.37 1.35 1.33 1.28 1.28 1.30 1.27 1.19 1.02 0.92 0.81 0.73 0.66 0.64 0.60 0.55 0.46 0.38 0.31 0.32 0.33 0.37 0.35 0.30 0.25 0.17 0.12 0.12 0.12 0.12 0.09 0.10 0.11 0.10 0.09 0.13 0.20 0.25 0.27 0.24 0.23 0.24
1.69 1.50 1.41 1.44 1.49 1.41 1.36 1.29 1.21 0.99 0.90 0.89 0.83 0.72 0.68 0.71 0.67 0.61 0.48 0.38 0.37 0.35 0.36 0.36 0.33 0.25 0.18 0.15 0.14 0.12 0.13 0.14 0.13 0.12 0.11 0.11 0.15 0.24 0.28 0.28 0.24 0.23 0.25
2.01 1.80 1.65 1.68 1.70 1.56 1.48 1.41 1.29 1.05 0.87 0.84 0.84 0.84 0.78 0.72 0.63 0.60 0.51 0.40 0.38 0.37 0.37 0.38 0.31 0.27 0.24 0.20 0.18 0.16 0.16 0.15 0.15 0.16 0.16 0.15 0.14 0.20 0.29 0.33 0.30 0.30 0.29
2.19 2.13 1.95 1.87 1.92 1.78 1.68 1.57 1.34 1.17 0.93 0.80 0.81 0.85 0.81 0.71 0.64 0.58 0.51 0.47 0.41 0.39 0.38 0.40 0.37 0.33 0.29 0.29 0.26 0.21 0.20 0.18 0.18 0.19 0.20 0.22 0.17 0.19 0.27 0.36 0.40 0.42 0.46
2.18 2.29 2.24 2.14 2.09 1.96 1.77 1.64 1.42 1.30 1.10 0.93 0.87 0.85 0.81 0.78 0.73 0.68 0.56 0.51 0.46 0.42 0.42 0.45 0.47 0.41 0.34 0.31 0.29 0.26 0.23 0.20 0.18 0.17 0.17 0.20 0.19 0.21 0.25 0.33 0.42 0.53 0.61
2.14 2.36 2.42 2.42 2.51 2.26 2.03 1.84 1.60 1.43 1.31 1.15 0.98 0.88 0.81 0.79 0.83 0.80 0.72 0.58 0.50 0.51 0.49 0.50 0.53 0.54 0.47 0.37 0.32 0.30 0.28 0.26 0.22 0.19 0.18 0.17 0.16 0.16 0.20 0.30 0.39 0.47 0.56
2.17 2.28 2.37 2.31 2.48 2.53 2.39 2.15 1.81 1.58 1.41 1.31 1.18 1.02 0.94 0.85 0.88 0.89 0.83 0.78 0.69 0.63 0.60 0.59 0.56 0.52 0.47 0.40 0.34 0.32 0.31 0.31 0.28 0.27 0.25 0.21 0.16 0.13 0.14 0.22 0.30 0.36 0.44
2.19 2.26 2.39 2.34 2.36 2.47 2.55 2.42 2.17 1.92 1.67 1.50 1.40 1.22 1.13 1.08 1.03 1.01 0.91 0.90 0.93 0.84 0.73 0.68 0.65 0.59 0.53 0.48 0.44 0.42 0.40 0.35 0.32 0.29 0.26 0.22 0.21 0.19 0.17 0.18 0.22 0.27 0.32
2.20 2.37 2.49 2.59 2.55 2.66 2.85 2.77 2.54 2.30 2.07 1.87 1.65 1.55 1.42 1.29 1.21 1.13 1.06 1.02 1.05 0.99 0.87 0.79 0.72 0.67 0.59 0.58 0.58 0.51 0.45 0.38 0.36 0.34 0.30 0.27 0.25 0.26 0.28 0.28 0.28 0.28 0.30
1.89 2.14 2.22 2.44 2.58 2.68 2.73 2.63 2.45 2.28 2.14 2.00 1.88 1.78 1.66 1.53 1.42 1.26 1.15 1.12 1.13 1.10 0.99 0.93 0.88 0.78 0.72 0.72 0.69 0.57 0.46 0.40 0.35 0.31 0.33 0.34 0.31 0.28 0.30 0.34 0.36 0.35 0.29
1.53 1.70 1.82 1.99 2.20 2.36 2.44 2.40 2.43 2.46 2.31 2.09 1.96 1.85 1.75 1.68 1.56 1.40 1.25 1.20 1.18 1.16 1.07 1.01 1.05 1.02 0.92 0.88 0.86 0.84 0.69 0.54 0.40 0.34 0.34 0.34 0.33 0.33 0.32 0.31 0.33 0.34 0.36
1.24 1.40 1.51 1.64 1.78 1.88 2.19 2.41 2.43 2.49 2.42 2.14 1.89 1.73 1.76 1.83 1.76 1.59 1.42 1.38 1.34 1.33 1.26 1.17 1.14 1.12 1.11 1.06 1.07 1.16 0.99 0.73 0.52 0.41 0.38 0.37 0.37 0.37 0.35 0.36 0.35 0.36 0.37
1.00 1.17 1.32 1.46 1.55 1.61 1.85 2.09 2.10 1.99 1.93 1.84 1.78 1.80 1.82 1.86 1.88 1.85 1.74 1.60 1.52 1.48 1.43 1.48 1.49 1.38 1.31 1.18 1.10 1.06 1.05 0.88 0.82 0.63 0.45 0.42 0.41 0.39 0.38 0.37 0.37 0.37 0.37
0.82 0.90 1.06 1.30 1.39 1.43 1.51 1.68 1.90 1.91 1.84 1.86 1.87 1.83 1.75 1.67 1.75 1.85 1.84 1.73 1.58 1.47 1.39 1.43 1.50 1.53 1.42 1.30 1.21 1.15 1.11 1.00 0.90 0.87 0.66 0.49 0.46 0.43 0.43 0.45 0.47 0.50 0.51
0.70 0.69 0.82 0.98 1.23 1.35 1.39 1.46 1.60 1.68 1.65 1.65 1.73 1.77 1.77 1.66 1.59 1.63 1.69 1.62 1.58 1.51 1.43 1.43 1.50 1.57 1.55 1.47 1.35 1.24 1.19 1.12 0.98 0.99 0.92 0.71 0.63 0.56 0.55 0.58 0.61 0.64 0.64

GEFSSE_prec_meanprecacc_204.txt.gz
Total_Precipitation_Accumulation
0.08 0.16 0.35 0.41 0.40 0.36 0.36 0.32 0.30 0.29 0.29 0.31 0.34 0.36 0.34 0.33 0.32 0.31 0.32 0.33 0.39 0.44 0.51 0.55 0.52 0.48 0.41 0.34 0.22 0.14 0.12 0.14 0.10 0.08 0.07 0.08 0.11 0.12 0.10 0.09 0.10 0.16 0.21
0.08 0.15 0.31 0.41 0.45 0.44 0.41 0.36 0.31 0.28 0.28 0.34 0.39 0.37 0.36 0.35 0.35 0.34 0.41 0.41 0.43 0.45 0.49 0.54 0.53 0.42 0.33 0.25 0.16 0.12 0.11 0.06 0.03 0.03 0.01 0.02 0.05 0.07 0.08 0.07 0.09 0.15 0.20
0.10 0.17 0.30 0.41 0.49 0.48 0.43 0.37 0.30 0.28 0.30 0.35 0.41 0.40 0.39 0.39 0.39 0.38 0.40 0.42 0.44 0.46 0.43 0.40 0.39 0.30 0.22 0.15 0.11 0.09 0.08 0.05 0.03 0.02 0.02 0.04 0.06 0.09 0.09 0.09 0.13 0.18 0.20
0.15 0.20 0.30 0.45 0.58 0.55 0.49 0.41 0.36 0.35 0.37 0.40 0.45 0.45 0.47 0.45 0.44 0.45 0.40 0.39 0.41 0.38 0.34 0.30 0.25 0.17 0.13 0.11 0.09 0.08 0.06 0.04 0.03 0.03 0.04 0.05 0.07 0.14 0.14 0.14 0.16 0.18 0.17
0.21 0.27 0.37 0.50 0.67 0.67 0.57 0.47 0.41 0.43 0.46 0.49 0.52 0.53 0.56 0.50 0.49 0.49 0.43 0.38 0.37 0.29 0.26 0.23 0.18 0.11 0.08 0.08 0.08 0.08 0.07 0.05 0.03 0.03 0.04 0.07 0.11 0.18 0.17 0.16 0.16 0.17 0.17
0.29 0.37 0.48 0.59 0.75 0.83 0.69 0.58 0.49 0.49 0.53 0.59 0.63 0.64 0.63 0.60 0.58 0.55 0.43 0.37 0.31 0.25 0.20 0.19 0.17 0.11 0.07 0.07 0.06 0.06 0.08 0.07 0.04 0.03 0.04 0.06 0.11 0.19 0.21 0.19 0.19 0.20 0.21
0.33 0.49 0.64 0.76 0.87 1.01 0.90 0.76 0.67 0.63 0.64 0.67 0.70 0.68 0.69 0.70 0.68 0.63 0.45 0.34 0.28 0.24 0.19 0.16 0.16 0.12 0.09 0.08 0.07 0.06 0.07 0.07 0.06 0.05 0.05 0.06 0.13 0.23 0.24 0.23 0.23 0.22 0.21
0.44 0.57 0.81 1.05 1.09 1.20 1.17 0.95 0.82 0.75 0.74 0.77 0.76 0.73 0.74 0.75 0.74 0.70 0.50 0.34 0.27 0.25 0.22 0.18 0.18 0.15 0.11 0.10 0.09 0.08 0.08 0.06 0.04 0.05 0.05 0.06 0.11 0.18 0.18 0.17 0.18 0.20 0.21
0.71 0.71 0.84 1.08 1.22 1.31 1.35 1.10 0.99 0.88 0.80 0.81 0.85 0.84 0.74 0.69 0.70 0.66 0.50 0.37 0.31 0.31 0.29 0.25 0.22 0.21 0.15 0.13 0.11 0.09 0.06 0.05 0.04 0.05 0.04 0.05 0.09 0.14 0.15 0.16 0.20 0.22 0.25
1.10 1.02 0.97 1.09 1.20 1.35 1.43 1.15 1.00 0.92 0.86 0.85 0.85 0.76 0.63 0.59 0.62 0.59 0.45 0.36 0.32 0.34 0.33 0.29 0.25 0.23 0.20 0.16 0.13 0.09 0.06 0.05 0.05 0.05 0.05 0.06 0.10 0.15 0.18 0.20 0.22 0.24 0.27
1.41 1.38 1.28 1.24 1.19 1.24 1.37 1.21 1.09 0.99 0.89 0.84 0.82 0.72 0.64 0.60 0.60 0.53 0.39 0.31 0.31 0.33 0.34 0.31 0.27 0.26 0.19 0.14 0.12 0.10 0.09 0.08 0.08 0.08 0.09 0.08 0.10 0.16 0.22 0.26 0.26 0.26 0.28
1.49 1.44 1.44 1.41 1.33 1.32 1.33 1.29 1.22 1.08 0.98 0.86 0.77 0.70 0.68 0.63 0.58 0.50 0.42 0.35 0.35 0.35 0.39 0.37 0.32 0.28 0.20 0.15 0.14 0.13 0.12 0.09 0.11 0.11 0.10 0.09 0.13 0.21 0.28 0.31 0.26 0.24 0.25
1.75 1.58 1.51 1.51 1.55 1.46 1.40 1.31 1.23 1.04 0.98 0.96 0.87 0.75 0.71 0.75 0.71 0.66 0.53 0.43 0.41 0.38 0.39 0.38 0.36 0.29 0.21 0.17 0.16 0.12 0.13 0.14 0.13 0.12 0.11 0.11 0.16 0.26 0.30 0.30 0.26 0.25 0.26
2.10 1.91 1.78 1.78 1.76 1.63 1.53 1.43 1.31 1.08 0.93 0.92 0.91 0.88 0.81 0.76 0.68 0.64 0.57 0.44 0.41 0.40 0.40 0.40 0.34 0.31 0.29 0.23 0.19 0.18 0.16 0.16 0.16 0.16 0.16 0.15 0.15 0.22 0.30 0.34 0.32 0.31 0.31
2.27 2.23 2.09 2.03 2.02 1.85 1.73 1.60 1.36 1.20 0.99 0.89 0.88 0.91 0.84 0.74 0.67 0.62 0.57 0.52 0.44 0.42 0.41 0.43 0.39 0.37 0.36 0.33 0.28 0.22 0.21 0.19 0.18 0.19 0.21 0.22 0.18 0.20 0.29 0.38 0.43 0.45 0.48
2.28 2.39 2.37 2.31 2.24 2.07 1.85 1.68 1.45 1.33 1.15 1.04 0.97 0.92 0.86 0.81 0.77 0.71 0.61 0.54 0.48 0.45 0.45 0.47 0.48 0.45 0.40 0.37 0.32 0.28 0.24 0.21 0.18 0.17 0.18 0.20 0.20 0.21 0.26 0.36 0.46 0.57 0.64
2.26 2.46 2.54 2.57 2.66 2.40 2.14 1.91 1.65 1.47 1.35 1.24 1.10 0.98 0.88 0.83 0.86 0.84 0.76 0.62 0.53 0.54 0.52 0.53 0.55 0.57 0.52 0.44 0.36 0.33 0.30 0.27 0.22 0.19 0.19 0.17 0.16 0.16 0.20 0.32 0.43 0.52 0.60
2.27 2.37 2.48 2.44 2.62 2.67 2.50 2.22 1.87 1.65 1.48 1.38 1.29 1.14 1.04 0.92 0.92 0.93 0.88 0.83 0.72 0.66 0.63 0.62 0.59 0.55 0.52 0.46 0.40 0.34 0.34 0.33 0.29 0.28 0.27 0.22 0.17 0.13 0.15 0.23 0.31 0.38 0.46
2.29 2.35 2.48 2.44 2.48 2.58 2.64 2.49 2.22 1.98 1.74 1.58 1.49 1.34 1.23 1.17 1.11 1.08 0.98 0.95 0.97 0.87 0.76 0.71 0.68 0.62 0.58 0.54 0.49 0.46 0.42 0.37 0.33 0.31 0.28 0.23 0.21 0.20 0.18 0.19 0.22 0.27 0.34
2.29 2.46 2.56 2.67 2.67 2.77 2.93 2.82 2.57 2.35 2.13 1.94 1.73 1.64 1.53 1.40 1.32 1.22 1.15 1.10 1.11 1.04 0.91 0.82 0.75 0.71 0.65 0.64 0.63 0.55 0.48 0.40 0.38 0.36 0.32 0.28 0.26 0.27 0.29 0.29 0.29 0.29 0.32
1.99 2.23 2.29 2.51 2.68 2.81 2.82 2.67 2.48 2.31 2.18 2.05 1.94 1.86 1.74 1.63 1.54 1.38 1.24 1.20 1.21 1.15 1.04 0.97 0.92 0.82 0.78 0.80 0.77 0.62 0.51 0.44 0.37 0.33 0.35 0.36 0.33 0.30 0.31 0.35 0.38 0.36 0.31
1.61 1.78 1.89 2.05 2.27 2.47 2.54 2.44 2.46 2.50 2.35 2.15 2.03 1.93 1.84 1.76 1.67 1.53 1.37 1.29 1.26 1.22 1.12 1.06 1.10 1.07 0.98 0.96 0.94 0.90 0.74 0.57 0.43 0.37 0.37 0.36 0.35 0.35 0.33 0.32 0.33 0.36 0.37
1.30 1.48 1.58 1.69 1.84 1.94 2.26 2.46 2.47 2.54 2.47 2.20 1.96 1.80 1.84 1.91 1.87 1.71 1.55 1.48 1.42 1.39 1.31 1.22 1.19 1.17 1.16 1.13 1.14 1.21 1.03 0.77 0.55 0.43 0.40 0.39 0.39 0.38 0.37 0.37 0.36 0.37 0.39
1.04 1.22 1.38 1.51 1.61 1.65 1.89 2.13 2.14 2.04 1.99 1.91 1.86 1.89 1.90 1.93 1.97 1.94 1.82 1.68 1.58 1.52 1.46 1.53 1.55 1.45 1.37 1.24 1.17 1.12 1.08 0.91 0.85 0.65 0.47 0.44 0.43 0.41 0.40 0.38 0.38 0.39 0.39
0.85 0.94 1.11 1.35 1.43 1.46 1.55 1.72 1.93 1.96 1.90 1.93 1.95 1.93 1.86 1.77 1.83 1.91 1.90 1.79 1.62 1.49 1.41 1.45 1.54 1.59 1.49 1.38 1.29 1.21 1.16 1.03 0.93 0.91 0.69 0.52 0.49 0.45 0.45 0.46 0.48 0.51 0.53
0.72 0.72 0.85 1.02 1.26 1.37 1.42 1.50 1.64 1.72 1.69 1.71 1.80 1.85 1.88 1.78 1.68 1.71 1.74 1.67 1.63 1.54 1.44 1.44 1.52 1.59 1.60 1.54 1.43 1.31 1.24 1.16 1.00 1.01 0.95 0.74 0.66 0.58 0.57 0.59 0.63 0.66 0.67

GEFSSE_prec_meanprecacc_210.txt.gz
Total_Precipitation_Accumulation
0.08 0.16 0.35 0.43 0.46 0.41 0.40 0.36 0.32 0.31 0.30 0.33 0.37 0.38 0.35 0.35 0.33 0.32 0.34 0.36 0.42 0.47 0.53 0.57 0.55 0.50 0.43 0.35 0.22 0.14 0.13 0.14 0.10 0.08 0.07 0.08 0.11 0.13 0.11 0.09 0.11 0.16 0.21
0.08 0.15 0.31 0.42 0.51 0.51 0.47 0.41 0.34 0.30 0.30 0.36 0.41 0.40 0.38 0.37 0.37 0.36 0.42 0.44 0.48 0.48 0.51 0.55 0.55 0.45 0.35 0.26 0.17 0.12 0.12 0.06 0.04 0.03 0.01 0.03 0.07 0.08 0.08 0.08 0.10 0.17 0.21
0.10 0.17 0.30 0.43 0.52 0.55 0.49 0.42 0.34 0.31 0.32 0.37 0.43 0.42 0.42 0.42 0.42 0.41 0.43 0.45 0.50 0.50 0.45 0.42 0.40 0.32 0.24 0.15 0.11 0.10 0.09 0.05 0.03 0.03 0.02 0.05 0.08 0.09 0.09 0.09 0.14 0.19 0.20
0.15 0.21 0.31 0.47 0.61 0.61 0.55 0.47 0.40 0.39 0.40 0.43 0.48 0.48 0.49 0.47 0.47 0.48 0.44 0.43 0.47 0.43 0.37 0.32 0.26 0.19 0.15 0.12 0.10 0.08 0.06 0.04 0.03 0.03 0.05 0.07 0.09 0.14 0.15 0.15 0.17 0.20 0.18
0.22 0.28 0.39 0.53 0.71 0.70 0.60 0.51 0.46 0.47 0.50 0.52 0.55 0.56 0.59 0.54 0.52 0.52 0.47 0.42 0.42 0.36 0.29 0.25 0.19 0.13 0.10 0.09 0.09 0.09 0.08 0.06 0.03 0.03 0.05 0.09 0.13 0.19 0.18 0.18 0.19 0.20 0.18
0.30 0.38 0.50 0.63 0.80 0.86 0.71 0.60 0.52 0.53 0.57 0.63 0.66 0.68 0.66 0.64 0.61 0.57 0.46 0.41 0.35 0.29 0.24 0.21 0.18 0.12 0.08 0.08 0.07 0.07 0.09 0.08 0.04 0.03 0.04 0.07 0.13 0.20 0.21 0.20 0.21 0.22 0.22
0.35 0.51 0.67 0.80 0.92 1.05 0.93 0.79 0.70 0.67 0.67 0.71 0.74 0.71 0.72 0.73 0.72 0.65 0.47 0.36 0.31 0.27 0.22 0.19 0.17 0.13 0.10 0.09 0.08 0.07 0.08 0.08 0.06 0.06 0.06 0.07 0.13 0.23 0.25 0.23 0.24 0.24 0.23
0.46 0.59 0.84 1.10 1.15 1.25 1.21 0.99 0.87 0.79 0.78 0.81 0.80 0.77 0.78 0.79 0.77 0.74 0.53 0.37 0.29 0.27 0.25 0.21 0.19 0.16 0.12 0.11 0.10 0.09 0.09 0.06 0.05 0.06 0.06 0.07 0.12 0.18 0.19 0.17 0.19 0.21 0.23
0.73 0.74 0.87 1.12 1.28 1.36 1.39 1.15 1.03 0.90 0.83 0.85 0.89 0.88 0.78 0.73 0.74 0.70 0.53 0.39 0.33 0.33 0.31 0.27 0.24 0.22 0.17 0.14 0.12 0.10 0.07 0.05 0.04 0.06 0.05 0.06 0.09 0.15 0.16 0.17 0.21 0.23 0.26
1.12 1.06 1.01 1.11 1.23 1.41 1.48 1.20 1.04 0.94 0.88 0.88 0.88 0.80 0.66 0.62 0.66 0.64 0.49 0.39 0.35 0.36 0.35 0.30 0.26 0.24 0.21 0.18 0.14 0.10 0.07 0.06 0.05 0.06 0.06 0.07 0.10 0.15 0.18 0.21 0.23 0.25 0.28
1.44 1.42 1.33 1.27 1.22 1.28 1.42 1.27 1.14 1.02 0.92 0.87 0.86 0.76 0.68 0.63 0.63 0.57 0.43 0.35 0.34 0.36 0.37 0.33 0.29 0.27 0.21 0.16 0.13 0.11 0.10 0.09 0.08 0.09 0.09 0.08 0.10 0.16 0.23 0.27 0.29 0.28 0.29
1.52 1.48 1.50 1.46 1.36 1.35 1.38 1.34 1.27 1.11 1.00 0.89 0.80 0.75 0.73 0.67 0.62 0.53 0.45 0.38 0.39 0.38 0.42 0.39 0.34 0.30 0.21 0.17 0.16 0.14 0.12 0.10 0.11 0.11 0.10 0.10 0.14 0.22 0.29 0.31 0.27 0.27 0.28
1.80 1.63 1.57 1.58 1.60 1.51 1.45 1.36 1.27 1.07 1.00 0.99 0.90 0.79 0.75 0.79 0.74 0.70 0.57 0.46 0.45 0.41 0.42 0.41 0.38 0.31 0.23 0.19 0.18 0.14 0.14 0.15 0.13 0.13 0.12 0.11 0.17 0.27 0.31 0.31 0.27 0.26 0.28
2.17 1.99 1.88 1.88 1.83 1.70 1.59 1.47 1.35 1.11 0.96 0.95 0.94 0.92 0.86 0.80 0.71 0.67 0.60 0.47 0.43 0.42 0.42 0.42 0.36 0.34 0.31 0.26 0.23 0.20 0.17 0.16 0.16 0.17 0.16 0.16 0.16 0.23 0.31 0.35 0.32 0.32 0.32
2.32 2.31 2.20 2.16 2.11 1.92 1.80 1.66 1.41 1.23 1.01 0.91 0.92 0.95 0.88 0.78 0.71 0.65 0.59 0.54 0.46 0.44 0.43 0.45 0.41 0.39 0.38 0.35 0.31 0.26 0.23 0.21 0.19 0.20 0.21 0.22 0.19 0.20 0.30 0.39 0.43 0.45 0.48
2.34 2.46 2.48 2.44 2.36 2.15 1.91 1.74 1.51 1.38 1.19 1.07 1.01 0.96 0.89 0.85 0.80 0.75 0.65 0.57 0.50 0.46 0.46 0.49 0.50 0.47 0.43 0.39 0.34 0.30 0.26 0.24 0.20 0.19 0.20 0.21 0.20 0.21 0.27 0.37 0.48 0.58 0.65
2.32 2.53 2.64 2.70 2.80 2.52 2.22 1.96 1.71 1.53 1.40 1.27 1.12 1.02 0.92 0.86 0.90 0.88 0.81 0.66 0.55 0.56 0.54 0.54 0.57 0.60 0.55 0.47 0.40 0.35 0.33 0.30 0.26 0.22 0.22 0.20 0.17 0.16 0.21 0.33 0.45 0.53 0.62
2.31 2.43 2.57 2.55 2.76 2.83 2.63 2.32 1.95 1.71 1.54 1.43 1.33 1.18 1.07 0.95 0.95 0.98 0.93 0.87 0.76 0.70 0.67 0.64 0.60 0.57 0.54 0.48 0.43 0.39 0.37 0.36 0.33 0.32 0.31 0.25 0.19 0.14 0.16 0.23 0.32 0.39 0.48
2.35 2.41 2.57 2.55 2.60 2.74 2.81 2.63 2.34 2.08 1.82 1.66 1.58 1.39 1.27 1.21 1.14 1.13 1.03 1.00 1.01 0.92 0.81 0.76 0.71 0.63 0.60 0.56 0.52 0.51 0.46 0.41 0.38 0.37 0.34 0.27 0.25 0.22 0.19 0.19 0.23 0.27 0.34
2.35 2.53 2.64 2.76 2.76 2.88 3.09 3.01 2.72 2.46 2.25 2.06 1.87 1.75 1.59 1.46 1.37 1.28 1.21 1.14 1.16 1.09 0.97 0.88 0.79 0.73 0.67 0.67 0.66 0.59 0.53 0.44 0.41 0.39 0.36 0.33 0.30 0.30 0.30 0.30 0.29 0.29 0.32
2.03 2.31 2.38 2.61 2.77 2.91 2.94 2.80 2.60 2.39 2.26 2.16 2.09 2.02 1.87 1.72 1.60 1.45 1.31 1.27 1.26 1.20 1.09 1.04 0.97 0.86 0.81 0.84 0.81 0.66 0.55 0.48 0.40 0.36 0.39 0.41 0.38 0.33 0.34 0.37 0.39 0.37 0.32
1.65 1.84 1.98 2.15 2.38 2.58 2.67 2.55 2.55 2.58 2.41 2.21 2.12 2.06 2.00 1.92 1.78 1.62 1.44 1.37 1.33 1.29 1.18 1.12 1.17 1.13 1.03 1.01 1.00 0.96 0.79 0.63 0.48 0.40 0.40 0.41 0.41 0.42 0.38 0.35 0.35 0.37 0.38
1.33 1.52 1.66 1.81 1.96 2.06 2.40 2.59 2.56 2.62 2.55 2.26 2.03 1.89 1.96 2.04 2.00 1.82 1.64 1.57 1.51 1.48 1.39 1.29 1.26 1.25 1.24 1.20 1.20 1.28 1.10 0.82 0.58 0.46 0.43 0.43 0.44 0.48 0.48 0.42 0.38 0.39 0.39
1.06 1.26 1.45 1.62 1.75 1.77 2.01 2.27 2.26 2.14 2.08 1.98 1.94 1.98 2.02 2.05 2.07 2.03 1.92 1.76 1.66 1.61 1.55 1.62 1.63 1.52 1.44 1.32 1.23 1.17 1.13 0.97 0.90 0.68 0.49 0.47 0.47 0.47 0.51 0.49 0.44 0.42 0.40
0.87 0.97 1.16 1.44 1.57 1.61 1.66 1.83 2.02 2.05 2.00 2.01 2.02 2.02 1.99 1.91 1.93 2.00 1.98 1.87 1.68 1.56 1.48 1.52 1.60 1.64 1.53 1.42 1.34 1.26 1.21 1.08 0.98 0.95 0.72 0.54 0.51 0.48 0.49 0.52 0.55 0.57 0.57
0.74 0.74 0.89 1.08 1.37 1.52 1.55 1.60 1.71 1.79 1.76 1.78 1.85 1.90 1.95 1.87 1.78 1.78 1.81 1.74 1.69 1.59 1.49 1.48 1.57 1.64 1.63 1.57 1.46 1.34 1.27 1.20 1.04 1.05 0.98 0.77 0.68 0.60 0.60 0.63 0.67 0.71 0.72

GEFSSE_prec_meanprecacc_216.txt.gz
Total_Precipitation_Accumulation
0.09 0.16 0.36 0.44 0.50 0.49 0.44 0.39 0.35 0.33 0.32 0.34 0.37 0.38 0.36 0.35 0.34 0.33 0.34 0.37 0.43 0.48 0.54 0.58 0.56 0.51 0.43 0.35 0.23 0.14 0.13 0.15 0.11 0.08 0.07 0.09 0.13 0.14 0.11 0.10 0.11 0.17 0.23
0.09 0.16 0.32 0.44 0.53 0.57 0.52 0.45 0.37 0.32 0.32 0.38 0.42 0.41 0.39 0.38 0.38 0.36 0.43 0.45 0.50 0.50 0.53 0.57 0.57 0.46 0.36 0.27 0.17 0.13 0.13 0.07 0.04 0.03 0.02 0.04 0.07 0.08 0.09 0.09 0.11 0.18 0.22
0.12 0.18 0.31 0.44 0.54 0.56 0.51 0.45 0.37 0.33 0.34 0.39 0.45 0.44 0.44 0.43 0.43 0.41 0.44 0.48 0.54 0.53 0.46 0.44 0.42 0.32 0.24 0.16 0.12 0.11 0.10 0.06 0.03 0.03 0.03 0.06 0.08 0.10 0.11 0.11 0.15 0.21 0.21
0.18 0.22 0.32 0.49 0.63 0.63 0.56 0.49 0.42 0.41 0.41 0.44 0.50 0.51 0.52 0.49 0.48 0.50 0.46 0.45 0.51 0.47 0.40 0.34 0.27 0.19 0.15 0.13 0.10 0.09 0.07 0.04 0.03 0.03 0.05 0.08 0.09 0.16 0.17 0.16 0.19 0.22 0.20
0.25 0.30 0.41 0.55 0.73 0.73 0.62 0.53 0.47 0.49 0.51 0.54 0.57 0.60 0.62 0.56 0.55 0.55 0.50 0.45 0.46 0.39 0.32 0.27 0.20 0.13 0.10 0.09 0.09 0.09 0.08 0.06 0.03 0.03 0.06 0.10 0.13 0.21 0.20 0.19 0.21 0.23 0.20
0.32 0.40 0.52 0.65 0.82 0.89 0.75 0.63 0.55 0.54 0.58 0.64 0.68 0.71 0.69 0.68 0.66 0.61 0.49 0.43 0.38 0.32 0.26 0.23 0.19 0.13 0.09 0.08 0.08 0.08 0.10 0.08 0.04 0.03 0.04 0.08 0.13 0.23 0.24 0.21 0.23 0.26 0.25
0.38 0.53 0.68 0.82 0.93 1.07 0.97 0.83 0.73 0.69 0.69 0.72 0.76 0.74 0.75 0.77 0.77 0.69 0.50 0.38 0.34 0.31 0.25 0.21 0.19 0.14 0.10 0.10 0.09 0.08 0.09 0.08 0.06 0.07 0.06 0.07 0.13 0.26 0.26 0.24 0.26 0.26 0.24
0.49 0.62 0.86 1.11 1.17 1.27 1.24 1.04 0.90 0.82 0.80 0.82 0.82 0.80 0.81 0.81 0.81 0.78 0.56 0.40 0.33 0.31 0.27 0.22 0.20 0.17 0.12 0.11 0.10 0.09 0.10 0.07 0.06 0.07 0.06 0.07 0.12 0.20 0.20 0.18 0.20 0.23 0.24
0.76 0.76 0.89 1.13 1.30 1.39 1.42 1.18 1.07 0.94 0.85 0.86 0.90 0.90 0.81 0.75 0.77 0.74 0.57 0.43 0.37 0.37 0.34 0.29 0.26 0.23 0.17 0.15 0.13 0.10 0.08 0.06 0.05 0.07 0.06 0.07 0.10 0.17 0.17 0.17 0.21 0.25 0.28
1.14 1.08 1.03 1.13 1.25 1.43 1.50 1.23 1.08 0.97 0.90 0.89 0.90 0.82 0.67 0.63 0.67 0.66 0.52 0.42 0.38 0.40 0.38 0.33 0.28 0.26 0.22 0.18 0.14 0.11 0.08 0.06 0.05 0.06 0.06 0.07 0.10 0.17 0.19 0.22 0.24 0.26 0.30
1.47 1.46 1.37 1.29 1.23 1.30 1.44 1.30 1.17 1.06 0.94 0.88 0.87 0.78 0.69 0.64 0.64 0.57 0.44 0.37 0.37 0.39 0.41 0.36 0.31 0.29 0.22 0.17 0.14 0.12 0.11 0.09 0.08 0.09 0.09 0.08 0.11 0.18 0.24 0.29 0.30 0.30 0.31
1.56 1.52 1.55 1.50 1.39 1.37 1.41 1.37 1.29 1.13 1.02 0.90 0.81 0.76 0.74 0.68 0.63 0.54 0.46 0.40 0.41 0.40 0.45 0.43 0.36 0.30 0.22 0.17 0.17 0.14 0.13 0.10 0.11 0.12 0.10 0.10 0.15 0.24 0.30 0.33 0.29 0.29 0.31
1.83 1.67 1.63 1.65 1.65 1.54 1.48 1.39 1.30 1.10 1.02 1.00 0.91 0.80 0.77 0.81 0.76 0.71 0.58 0.48 0.48 0.44 0.44 0.43 0.40 0.31 0.23 0.20 0.19 0.14 0.14 0.15 0.14 0.13 0.12 0.12 0.18 0.29 0.33 0.32 0.28 0.27 0.29
2.21 2.04 1.93 1.95 1.90 1.75 1.63 1.51 1.38 1.14 0.99 0.96 0.94 0.92 0.87 0.84 0.73 0.68 0.60 0.48 0.46 0.45 0.44 0.43 0.37 0.34 0.31 0.26 0.24 0.21 0.18 0.17 0.16 0.17 0.17 0.16 0.17 0.25 0.33 0.36 0.33 0.33 0.33
2.37 2.37 2.26 2.23 2.19 1.99 1.85 1.70 1.44 1.26 1.05 0.94 0.93 0.96 0.90 0.81 0.74 0.66 0.60 0.55 0.48 0.46 0.45 0.45 0.42 0.39 0.38 0.36 0.32 0.27 0.24 0.22 0.20 0.21 0.22 0.23 0.21 0.23 0.31 0.41 0.45 0.47 0.50
2.37 2.53 2.58 2.53 2.43 2.23 1.98 1.79 1.56 1.42 1.22 1.10 1.03 0.97 0.91 0.87 0.84 0.78 0.66 0.58 0.51 0.48 0.48 0.51 0.52 0.48 0.43 0.40 0.35 0.33 0.29 0.25 0.22 0.21 0.22 0.23 0.22 0.23 0.29 0.40 0.50 0.59 0.67
2.33 2.56 2.72 2.80 2.89 2.61 2.32 2.03 1.75 1.57 1.44 1.30 1.15 1.03 0.93 0.88 0.93 0.92 0.83 0.68 0.57 0.58 0.56 0.57 0.59 0.61 0.57 0.48 0.41 0.38 0.36 0.32 0.28 0.25 0.24 0.23 0.20 0.19 0.24 0.36 0.48 0.55 0.63
2.33 2.44 2.60 2.62 2.84 2.92 2.75 2.42 2.01 1.76 1.58 1.47 1.35 1.19 1.08 0.97 0.99 1.01 0.95 0.90 0.79 0.74 0.71 0.68 0.63 0.59 0.56 0.50 0.45 0.41 0.40 0.39 0.35 0.33 0.34 0.28 0.22 0.17 0.19 0.27 0.35 0.41 0.50
2.36 2.42 2.58 2.58 2.65 2.83 2.95 2.77 2.42 2.13 1.86 1.70 1.61 1.42 1.29 1.23 1.18 1.17 1.07 1.03 1.05 0.97 0.87 0.80 0.74 0.66 0.61 0.57 0.54 0.53 0.50 0.45 0.40 0.38 0.35 0.29 0.27 0.25 0.23 0.23 0.26 0.30 0.35
2.36 2.54 2.65 2.78 2.80 2.94 3.21 3.19 2.86 2.55 2.30 2.12 1.91 1.79 1.63 1.49 1.42 1.34 1.27 1.20 1.21 1.15 1.03 0.94 0.84 0.77 0.70 0.69 0.67 0.61 0.56 0.48 0.45 0.42 0.37 0.34 0.32 0.33 0.35 0.35 0.34 0.32 0.33
2.05 2.32 2.39 2.63 2.80 2.96 3.03 2.95 2.76 2.51 2.33 2.23 2.17 2.11 1.94 1.77 1.66 1.51 1.40 1.36 1.34 1.27 1.15 1.09 1.03 0.91 0.86 0.88 0.84 0.69 0.57 0.51 0.45 0.40 0.41 0.42 0.39 0.36 0.37 0.43 0.46 0.42 0.34
1.66 1.85 2.00 2.18 2.41 2.62 2.74 2.70 2.71 2.71 2.50 2.27 2.18 2.14 2.10 2.02 1.89 1.70 1.53 1.48 1.44 1.39 1.26 1.20 1.23 1.19 1.07 1.06 1.05 1.00 0.82 0.65 0.50 0.44 0.44 0.43 0.42 0.44 0.41 0.39 0.39 0.41 0.41
1.34 1.53 1.67 1.83 1.99 2.11 2.47 2.71 2.71 2.78 2.66 2.33 2.08 1.94 2.01 2.11 2.11 1.94 1.75 1.68 1.61 1.59 1.50 1.41 1.36 1.33 1.30 1.25 1.25 1.35 1.16 0.87 0.63 0.51 0.50 0.47 0.46 0.49 0.51 0.48 0.45 0.43 0.42
1.06 1.26 1.46 1.64 1.78 1.82 2.08 2.36 2.39 2.27 2.20 2.07 1.99 2.03 2.07 2.09 2.13 2.12 2.01 1.87 1.77 1.71 1.65 1.72 1.74 1.62 1.52 1.39 1.30 1.23 1.20 1.04 0.97 0.75 0.56 0.54 0.50 0.49 0.53 0.55 0.52 0.49 0.44
0.87 0.97 1.17 1.46 1.60 1.66 1.73 1.92 2.13 2.17 2.12 2.12 2.10 2.08 2.04 1.96 1.99 2.07 2.07 1.95 1.77 1.64 1.56 1.61 1.69 1.73 1.61 1.48 1.38 1.30 1.25 1.11 1.02 1.00 0.79 0.62 0.57 0.51 0.51 0.55 0.60 0.62 0.61
0.75 0.75 0.90 1.10 1.39 1.55 1.61 1.69 1.82 1.90 1.87 1.90 1.96 1.99 2.02 1.94 1.84 1.84 1.88 1.83 1.78 1.66 1.55 1.55 1.65 1.71 1.69 1.62 1.50 1.37 1.30 1.22 1.06 1.07 1.02 0.83 0.75 0.65 0.62 0.65 0.69 0.73 0.74

GEFSSE_prec_meanprecacc_222.txt.gz
Total_Precipitation_Accumulation
0.09 0.17 0.38 0.46 0.52 0.52 0.47 0.41 0.38 0.35 0.34 0.36 0.38 0.39 0.36 0.36 0.34 0.33 0.35 0.38 0.44 0.50 0.55 0.59 0.58 0.53 0.45 0.36 0.24 0.15 0.14 0.15 0.11 0.09 0.08 0.10 0.14 0.15 0.12 0.11 0.12 0.18 0.24
0.09 0.16 0.34 0.45 0.56 0.59 0.54 0.47 0.40 0.35 0.35 0.40 0.44 0.42 0.40 0.39 0.38 0.37 0.44 0.46 0.51 0.52 0.54 0.58 0.59 0.48 0.37 0.27 0.18 0.14 0.13 0.07 0.04 0.03 0.02 0.04 0.08 0.09 0.10 0.09 0.12 0.19 0.24
0.12 0.19 0.33 0.47 0.57 0.59 0.53 0.48 0.39 0.35 0.35 0.42 0.47 0.46 0.45 0.44 0.44 0.42 0.45 0.49 0.56 0.55 0.47 0.45 0.43 0.34 0.25 0.16 0.12 0.11 0.10 0.06 0.04 0.03 0.03 0.06 0.08 0.12 0.13 0.12 0.16 0.23 0.23
0.19 0.23 0.34 0.52 0.66 0.67 0.60 0.51 0.44 0.43 0.43 0.46 0.52 0.54 0.54 0.51 0.50 0.51 0.48 0.47 0.53 0.49 0.41 0.36 0.29 0.20 0.16 0.13 0.10 0.09 0.07 0.05 0.03 0.03 0.05 0.08 0.10 0.17 0.19 0.18 0.20 0.25 0.21
0.26 0.31 0.42 0.58 0.76 0.77 0.66 0.57 0.51 0.52 0.54 0.56 0.59 0.62 0.65 0.59 0.57 0.57 0.53 0.48 0.49 0.42 0.34 0.28 0.22 0.14 0.11 0.10 0.09 0.09 0.08 0.06 0.03 0.03 0.06 0.11 0.14 0.22 0.21 0.20 0.22 0.25 0.22
0.34 0.42 0.53 0.66 0.84 0.91 0.77 0.67 0.59 0.59 0.63 0.66 0.70 0.73 0.72 0.71 0.70 0.64 0.53 0.47 0.42 0.35 0.28 0.24 0.20 0.14 0.09 0.08 0.08 0.08 0.10 0.08 0.04 0.04 0.05 0.08 0.13 0.24 0.26 0.23 0.25 0.28 0.28
0.39 0.55 0.70 0.82 0.95 1.09 0.98 0.85 0.76 0.73 0.74 0.76 0.78 0.76 0.77 0.81 0.82 0.74 0.53 0.42 0.38 0.34 0.28 0.22 0.19 0.15 0.11 0.10 0.09 0.08 0.09 0.08 0.07 0.07 0.06 0.07 0.14 0.28 0.31 0.27 0.29 0.31 0.27
0.50 0.64 0.88 1.12 1.18 1.28 1.25 1.05 0.93 0.85 0.85 0.87 0.84 0.82 0.83 0.85 0.85 0.83 0.60 0.44 0.37 0.35 0.31 0.25 0.21 0.17 0.13 0.12 0.10 0.09 0.10 0.07 0.06 0.07 0.07 0.07 0.12 0.21 0.22 0.19 0.22 0.26 0.27
0.78 0.79 0.92 1.15 1.31 1.40 1.43 1.19 1.09 0.96 0.89 0.90 0.93 0.92 0.83 0.78 0.80 0.77 0.61 0.47 0.42 0.42 0.38 0.33 0.27 0.24 0.18 0.15 0.13 0.10 0.08 0.06 0.05 0.07 0.06 0.07 0.10 0.17 0.18 0.18 0.23 0.27 0.30
1.15 1.11 1.06 1.15 1.27 1.45 1.52 1.23 1.09 0.99 0.94 0.93 0.92 0.83 0.69 0.65 0.69 0.69 0.56 0.46 0.42 0.44 0.43 0.37 0.31 0.27 0.23 0.19 0.15 0.11 0.08 0.06 0.06 0.06 0.07 0.08 0.11 0.18 0.21 0.23 0.25 0.28 0.32
1.48 1.48 1.39 1.32 1.26 1.33 1.46 1.30 1.18 1.07 0.97 0.92 0.90 0.79 0.70 0.65 0.65 0.58 0.45 0.41 0.41 0.43 0.46 0.40 0.34 0.30 0.23 0.18 0.15 0.13 0.11 0.09 0.09 0.10 0.10 0.09 0.11 0.19 0.26 0.31 0.32 0.32 0.34
1.57 1.54 1.57 1.53 1.42 1.41 1.43 1.39 1.30 1.14 1.04 0.93 0.84 0.78 0.75 0.69 0.63 0.55 0.47 0.42 0.45 0.44 0.50 0.48 0.39 0.32 0.22 0.17 0.17 0.15 0.13 0.11 0.12 0.12 0.11 0.11 0.16 0.27 0.34 0.36 0.31 0.31 0.35
1.84 1.69 1.64 1.67 1.68 1.58 1.52 1.42 1.31 1.10 1.04 1.02 0.93 0.82 0.78 0.82 0.77 0.72 0.58 0.49 0.51 0.47 0.47 0.46 0.42 0.32 0.24 0.20 0.19 0.15 0.15 0.16 0.14 0.14 0.13 0.13 0.20 0.32 0.37 0.35 0.30 0.29 0.32
2.22 2.05 1.95 1.98 1.93 1.79 1.67 1.55 1.41 1.16 1.01 0.99 0.98 0.95 0.90 0.85 0.74 0.69 0.62 0.49 0.47 0.47 0.47 0.45 0.38 0.35 0.32 0.27 0.24 0.21 0.19 0.18 0.17 0.18 0.18 0.17 0.18 0.28 0.37 0.40 0.36 0.36 0.36
2.38 2.38 2.27 2.25 2.22 2.03 1.92 1.75 1.48 1.29 1.07 0.96 0.95 0.99 0.93 0.84 0.75 0.68 0.62 0.56 0.48 0.48 0.47 0.48 0.44 0.40 0.38 0.36 0.32 0.27 0.25 0.23 0.22 0.22 0.23 0.24 0.22 0.25 0.35 0.44 0.49 0.50 0.53
2.38 2.54 2.59 2.55 2.46 2.28 2.05 1.87 1.60 1.45 1.25 1.13 1.06 1.01 0.94 0.90 0.87 0.80 0.68 0.60 0.52 0.49 0.50 0.53 0.54 0.50 0.44 0.40 0.35 0.33 0.31 0.28 0.24 0.22 0.23 0.25 0.23 0.25 0.31 0.44 0.54 0.64 0.71
2.33 2.57 2.73 2.82 2.92 2.65 2.38 2.11 1.82 1.62 1.47 1.33 1.18 1.06 0.96 0.90 0.95 0.94 0.86 0.69 0.58 0.59 0.59 0.61 0.63 0.65 0.59 0.49 0.42 0.39 0.37 0.35 0.30 0.26 0.26 0.24 0.22 0.20 0.26 0.39 0.53 0.60 0.69
2.33 2.44 2.61 2.63 2.86 2.96 2.79 2.48 2.08 1.82 1.62 1.50 1.38 1.23 1.12 0.99 1.00 1.03 0.99 0.92 0.80 0.76 0.74 0.71 0.67 0.64 0.59 0.51 0.46 0.42 0.41 0.41 0.37 0.35 0.35 0.29 0.24 0.19 0.21 0.30 0.39 0.47 0.55
2.36 2.42 2.58 2.58 2.66 2.85 2.99 2.81 2.48 2.18 1.91 1.74 1.64 1.46 1.35 1.26 1.20 1.19 1.10 1.08 1.08 0.99 0.88 0.83 0.78 0.71 0.65 0.60 0.56 0.54 0.51 0.47 0.43 0.41 0.38 0.31 0.29 0.27 0.25 0.25 0.27 0.33 0.40
2.36 2.54 2.66 2.78 2.80 2.96 3.25 3.23 2.90 2.60 2.35 2.16 1.96 1.83 1.69 1.55 1.45 1.36 1.30 1.25 1.26 1.19 1.06 0.96 0.87 0.81 0.74 0.73 0.71 0.64 0.58 0.51 0.49 0.45 0.41 0.37 0.35 0.35 0.37 0.37 0.35 0.34 0.38
2.05 2.32 2.39 2.63 2.81 2.97 3.06 2.99 2.80 2.57 2.40 2.29 2.23 2.16 2.00 1.83 1.71 1.56 1.44 1.42 1.41 1.33 1.20 1.13 1.07 0.95 0.90 0.92 0.88 0.73 0.61 0.53 0.48 0.43 0.44 0.45 0.41 0.38 0.39 0.44 0.48 0.46 0.38
1.66 1.85 2.00 2.18 2.41 2.63 2.75 2.72 2.74 2.75 2.57 2.35 2.25 2.20 2.16 2.07 1.94 1.75 1.59 1.53 1.50 1.47 1.34 1.25 1.28 1.23 1.11 1.09 1.08 1.03 0.85 0.68 0.53 0.47 0.46 0.45 0.45 0.47 0.43 0.42 0.42 0.44 0.45
1.34 1.53 1.67 1.83 1.99 2.11 2.47 2.72 2.73 2.80 2.72 2.41 2.15 2.00 2.06 2.16 2.15 2.00 1.83 1.76 1.69 1.67 1.59 1.49 1.42 1.38 1.35 1.29 1.29 1.40 1.20 0.90 0.65 0.53 0.52 0.50 0.49 0.53 0.54 0.51 0.48 0.45 0.44
1.06 1.26 1.46 1.64 1.79 1.83 2.08 2.36 2.40 2.29 2.24 2.13 2.06 2.08 2.11 2.14 2.18 2.17 2.07 1.93 1.84 1.79 1.74 1.80 1.82 1.69 1.59 1.45 1.35 1.27 1.24 1.09 1.02 0.80 0.61 0.58 0.56 0.52 0.57 0.58 0.55 0.51 0.47
0.88 0.97 1.17 1.46 1.61 1.66 1.73 1.92 2.14 2.19 2.14 2.16 2.16 2.14 2.08 1.99 2.02 2.11 2.11 2.00 1.82 1.70 1.63 1.69 1.77 1.81 1.69 1.56 1.46 1.36 1.30 1.16 1.07 1.05 0.86 0.69 0.65 0.59 0.56 0.60 0.65 0.66 0.65
0.75 0.76 0.90 1.11 1.40 1.56 1.62 1.71 1.83 1.91 1.89 1.92 2.01 2.06 2.07 1.98 1.87 1.88 1.92 1.88 1.84 1.73 1.61 1.62 1.74 1.80 1.78 1.71 1.58 1.45 1.37 1.28 1.10 1.11 1.06 0.88 0.82 0.75 0.71 0.72 0.75 0.78 0.78

GEFSSE_prec_meanprecacc_228.txt.gz
Total_Precipitation_Accumulation
0.09 0.17 0.39 0.49 0.55 0.54 0.48 0.43 0.40 0.37 0.37 0.40 0.42 0.42 0.38 0.37 0.35 0.34 0.35 0.38 0.45 0.51 0.57 0.61 0.59 0.54 0.46 0.37 0.25 0.16 0.14 0.16 0.12 0.09 0.08 0.11 0.15 0.16 0.13 0.12 0.13 0.19 0.25
0.10 0.17 0.35 0.48 0.59 0.62 0.56 0.48 0.42 0.37 0.37 0.44 0.48 0.45 0.42 0.40 0.40 0.38 0.44 0.46 0.52 0.53 0.55 0.60 0.60 0.49 0.39 0.28 0.19 0.14 0.14 0.08 0.04 0.03 0.02 0.04 0.08 0.11 0.10 0.10 0.13 0.20 0.26
0.13 0.20 0.35 0.49 0.61 0.63 0.56 0.50 0.41 0.37 0.38 0.45 0.51 0.50 0.47 0.45 0.45 0.43 0.46 0.50 0.57 0.56 0.48 0.46 0.45 0.34 0.26 0.17 0.13 0.12 0.11 0.06 0.04 0.03 0.03 0.06 0.09 0.13 0.15 0.13 0.18 0.26 0.26
0.19 0.24 0.36 0.53 0.69 0.70 0.62 0.54 0.47 0.46 0.46 0.50 0.57 0.57 0.56 0.53 0.51 0.52 0.49 0.49 0.55 0.51 0.43 0.37 0.31 0.21 0.17 0.14 0.11 0.10 0.08 0.05 0.03 0.03 0.05 0.08 0.11 0.19 0.20 0.19 0.22 0.27 0.24
0.26 0.32 0.44 0.59 0.77 0.78 0.68 0.59 0.53 0.54 0.57 0.60 0.64 0.67 0.68 0.62 0.60 0.60 0.55 0.49 0.51 0.44 0.35 0.29 0.23 0.15 0.11 0.10 0.10 0.09 0.09 0.06 0.03 0.03 0.06 0.11 0.15 0.23 0.22 0.22 0.24 0.28 0.24
0.35 0.43 0.54 0.67 0.85 0.92 0.78 0.67 0.60 0.60 0.65 0.70 0.75 0.78 0.76 0.75 0.74 0.69 0.57 0.49 0.44 0.38 0.30 0.24 0.21 0.14 0.10 0.09 0.08 0.08 0.10 0.08 0.04 0.04 0.05 0.08 0.14 0.26 0.27 0.25 0.27 0.30 0.30
0.39 0.56 0.72 0.84 0.96 1.10 0.99 0.86 0.77 0.74 0.76 0.79 0.82 0.80 0.80 0.84 0.86 0.79 0.58 0.45 0.40 0.37 0.30 0.23 0.20 0.15 0.11 0.10 0.09 0.08 0.09 0.08 0.07 0.07 0.06 0.07 0.15 0.30 0.34 0.31 0.33 0.35 0.31
0.51 0.65 0.89 1.15 1.19 1.30 1.27 1.06 0.93 0.86 0.87 0.90 0.88 0.87 0.88 0.89 0.91 0.88 0.64 0.48 0.40 0.38 0.34 0.27 0.21 0.18 0.14 0.13 0.11 0.10 0.10 0.07 0.06 0.07 0.07 0.07 0.13 0.23 0.25 0.23 0.25 0.30 0.29
0.78 0.79 0.93 1.17 1.33 1.42 1.45 1.20 1.09 0.97 0.90 0.93 0.97 0.97 0.88 0.83 0.85 0.81 0.65 0.51 0.45 0.45 0.42 0.36 0.29 0.24 0.18 0.16 0.13 0.10 0.08 0.06 0.05 0.07 0.06 0.07 0.10 0.18 0.20 0.20 0.24 0.28 0.31
1.16 1.11 1.07 1.17 1.30 1.46 1.53 1.24 1.10 1.00 0.94 0.94 0.94 0.85 0.72 0.68 0.72 0.72 0.59 0.50 0.46 0.48 0.46 0.39 0.33 0.28 0.24 0.20 0.15 0.11 0.08 0.06 0.06 0.06 0.07 0.08 0.11 0.19 0.22 0.25 0.26 0.29 0.33
1.48 1.48 1.40 1.33 1.29 1.35 1.48 1.31 1.18 1.08 0.97 0.92 0.91 0.81 0.71 0.67 0.68 0.61 0.48 0.43 0.44 0.48 0.51 0.44 0.37 0.32 0.24 0.18 0.16 0.13 0.11 0.09 0.09 0.10 0.10 0.09 0.12 0.20 0.28 0.33 0.34 0.34 0.36
1.57 1.55 1.57 1.54 1.44 1.43 1.45 1.40 1.31 1.15 1.05 0.93 0.84 0.79 0.77 0.71 0.67 0.59 0.50 0.44 0.48 0.49 0.56 0.54 0.43 0.35 0.23 0.18 0.17 0.15 0.14 0.11 0.12 0.12 0.11 0.12 0.18 0.29 0.36 0.38 0.33 0.34 0.37
1.85 1.70 1.65 1.68 1.70 1.60 1.54 1.44 1.33 1.12 1.04 1.03 0.94 0.83 0.79 0.85 0.80 0.75 0.63 0.53 0.53 0.50 0.53 0.53 0.46 0.34 0.24 0.20 0.19 0.15 0.15 0.16 0.14 0.14 0.13 0.14 0.21 0.34 0.39 0.37 0.32 0.31 0.34
2.23 2.05 1.96 1.99 1.95 1.80 1.69 1.56 1.42 1.18 1.02 1.00 0.99 0.96 0.91 0.87 0.77 0.73 0.66 0.52 0.49 0.49 0.50 0.49 0.42 0.36 0.32 0.27 0.24 0.22 0.19 0.18 0.17 0.18 0.18 0.17 0.19 0.29 0.39 0.42 0.39 0.38 0.39
2.39 2.39 2.28 2.26 2.23 2.05 1.93 1.77 1.49 1.31 1.10 0.98 0.97 1.00 0.94 0.85 0.78 0.73 0.67 0.60 0.51 0.49 0.48 0.50 0.47 0.43 0.41 0.38 0.33 0.28 0.25 0.23 0.22 0.23 0.24 0.24 0.22 0.25 0.36 0.47 0.52 0.53 0.57
2.39 2.55 2.60 2.56 2.47 2.29 2.07 1.88 1.61 1.46 1.27 1.16 1.09 1.02 0.95 0.91 0.88 0.84 0.74 0.65 0.57 0.52 0.51 0.55 0.56 0.53 0.48 0.44 0.37 0.33 0.31 0.28 0.24 0.22 0.23 0.25 0.23 0.25 0.32 0.46 0.58 0.69 0.76
2.34 2.57 2.74 2.83 2.93 2.66 2.39 2.12 1.84 1.64 1.49 1.36 1.22 1.09 0.97 0.91 0.96 0.96 0.89 0.73 0.63 0.64 0.61 0.62 0.65 0.67 0.63 0.54 0.46 0.41 0.38 0.35 0.30 0.26 0.26 0.25 0.22 0.21 0.26 0.41 0.56 0.65 0.74
2.33 2.45 2.61 2.64 2.88 2.98 2.80 2.50 2.10 1.85 1.65 1.53 1.41 1.26 1.14 1.00 1.01 1.04 1.00 0.94 0.83 0.79 0.76 0.73 0.69 0.65 0.61 0.54 0.49 0.46 0.43 0.42 0.38 0.36 0.35 0.30 0.25 0.20 0.22 0.31 0.41 0.50 0.60
2.36 2.42 2.59 2.59 2.67 2.87 3.01 2.83 2.52 2.23 1.96 1.78 1.67 1.49 1.38 1.28 1.20 1.19 1.11 1.09 1.10 1.02 0.92 0.86 0.80 0.72 0.67 0.63 0.58 0.57 0.55 0.50 0.45 0.42 0.38 0.32 0.30 0.28 0.26 0.25 0.29 0.35 0.44
2.36 2.54 2.66 2.79 2.81 2.97 3.26 3.25 2.93 2.66 2.41 2.22 2.01 1.88 1.74 1.59 1.47 1.38 1.31 1.27 1.29 1.22 1.09 1.01 0.91 0.83 0.76 0.75 0.74 0.67 0.61 0.55 0.51 0.46 0.42 0.38 0.36 0.36 0.38 0.38 0.37 0.37 0.41
2.05 2.32 2.39 2.63 2.81 2.98 3.06 3.00 2.82 2.61 2.45 2.35 2.29 2.23 2.06 1.88 1.76 1.59 1.46 1.43 1.43 1.36 1.24 1.17 1.13 1.01 0.93 0.94 0.91 0.76 0.64 0.57 0.51 0.46 0.47 0.47 0.43 0.39 0.41 0.46 0.50 0.48 0.41
1.66 1.85 2.00 2.18 2.42 2.63 2.75 2.73 2.75 2.78 2.61 2.39 2.30 2.25 2.21 2.13 1.99 1.81 1.63 1.56 1.53 1.50 1.37 1.29 1.31 1.27 1.15 1.13 1.11 1.06 0.89 0.73 0.57 0.50 0.49 0.47 0.47 0.49 0.45 0.44 0.44 0.46 0.49
1.34 1.53 1.67 1.83 1.99 2.11 2.48 2.73 2.74 2.81 2.73 2.43 2.18 2.02 2.10 2.19 2.20 2.05 1.87 1.81 1.73 1.70 1.62 1.52 1.47 1.43 1.39 1.33 1.33 1.43 1.23 0.93 0.69 0.58 0.57 0.54 0.51 0.55 0.56 0.53 0.49 0.47 0.47
1.06 1.26 1.46 1.64 1.79 1.83 2.09 2.37 2.41 2.29 2.24 2.14 2.07 2.09 2.13 2.16 2.21 2.21 2.10 1.97 1.89 1.83 1.77 1.83 1.86 1.75 1.65 1.49 1.39 1.31 1.28 1.12 1.05 0.84 0.66 0.64 0.61 0.57 0.61 0.61 0.57 0.53 0.49
0.88 0.97 1.18 1.46 1.61 1.67 1.74 1.94 2.15 2.20 2.16 2.18 2.17 2.15 2.09 2.01 2.04 2.13 2.14 2.03 1.85 1.73 1.67 1.73 1.82 1.87 1.76 1.62 1.50 1.41 1.34 1.19 1.10 1.09 0.89 0.72 0.69 0.63 0.61 0.65 0.67 0.69 0.68
0.75 0.76 0.90 1.11 1.40 1.56 1.63 1.72 1.84 1.93 1.91 1.94 2.03 2.07 2.09 1.99 1.88 1.89 1.94 1.91 1.87 1.76 1.64 1.66 1.78 1.86 1.86 1.80 1.65 1.49 1.41 1.32 1.14 1.14 1.09 0.91 0.86 0.78 0.74 0.75 0.78 0.81 0.82

GEFSSE_prec_meanprecacc_234.txt.gz
Total_Precipitation_Accumulation
0.10 0.19 0.41 0.50 0.56 0.54 0.49 0.44 0.42 0.41 0.41 0.43 0.45 0.44 0.40 0.38 0.36 0.34 0.36 0.39 0.46 0.52 0.58 0.62 0.61 0.55 0.47 0.38 0.26 0.16 0.14 0.17 0.13 0.10 0.09 0.11 0.15 0.16 0.13 0.12 0.14 0.20 0.26
0.10 0.18 0.37 0.49 0.61 0.63 0.57 0.50 0.43 0.39 0.41 0.49 0.52 0.49 0.45 0.42 0.41 0.39 0.45 0.47 0.53 0.54 0.57 0.61 0.62 0.51 0.40 0.28 0.19 0.15 0.14 0.08 0.04 0.03 0.02 0.04 0.09 0.12 0.11 0.11 0.14 0.21 0.27
0.14 0.21 0.36 0.50 0.62 0.64 0.57 0.51 0.42 0.39 0.41 0.51 0.58 0.53 0.50 0.47 0.46 0.44 0.47 0.51 0.58 0.58 0.50 0.48 0.47 0.36 0.28 0.18 0.13 0.12 0.11 0.06 0.04 0.03 0.03 0.07 0.10 0.14 0.16 0.14 0.19 0.27 0.28
0.20 0.25 0.37 0.56 0.70 0.72 0.64 0.54 0.47 0.47 0.49 0.54 0.64 0.65 0.60 0.56 0.54 0.54 0.51 0.50 0.55 0.52 0.44 0.38 0.33 0.23 0.18 0.15 0.11 0.10 0.08 0.05 0.04 0.03 0.06 0.09 0.12 0.20 0.21 0.21 0.24 0.30 0.27
0.27 0.32 0.45 0.62 0.80 0.80 0.69 0.60 0.53 0.55 0.59 0.63 0.69 0.75 0.76 0.67 0.64 0.63 0.58 0.51 0.52 0.46 0.37 0.30 0.24 0.16 0.12 0.11 0.10 0.10 0.09 0.06 0.03 0.04 0.07 0.12 0.16 0.25 0.23 0.23 0.26 0.30 0.26
0.35 0.44 0.55 0.69 0.88 0.95 0.79 0.68 0.61 0.62 0.67 0.73 0.78 0.84 0.84 0.81 0.79 0.74 0.60 0.51 0.45 0.39 0.31 0.25 0.22 0.15 0.10 0.09 0.08 0.08 0.10 0.08 0.05 0.05 0.05 0.09 0.16 0.27 0.29 0.26 0.29 0.32 0.31
0.40 0.56 0.72 0.85 0.99 1.13 1.01 0.86 0.78 0.75 0.76 0.81 0.85 0.84 0.86 0.89 0.90 0.83 0.62 0.47 0.41 0.38 0.32 0.24 0.20 0.16 0.12 0.11 0.09 0.08 0.09 0.08 0.07 0.07 0.06 0.09 0.16 0.31 0.36 0.33 0.34 0.37 0.34
0.51 0.65 0.90 1.16 1.22 1.33 1.29 1.07 0.94 0.87 0.88 0.91 0.91 0.90 0.91 0.94 0.96 0.92 0.67 0.49 0.41 0.39 0.36 0.28 0.22 0.19 0.14 0.13 0.11 0.10 0.10 0.07 0.06 0.07 0.07 0.08 0.13 0.24 0.28 0.27 0.29 0.32 0.31
0.78 0.80 0.94 1.18 1.36 1.46 1.48 1.23 1.11 0.98 0.91 0.94 1.00 1.00 0.91 0.86 0.88 0.85 0.67 0.53 0.46 0.47 0.44 0.38 0.30 0.25 0.19 0.16 0.14 0.10 0.08 0.06 0.05 0.07 0.06 0.07 0.11 0.19 0.23 0.23 0.27 0.30 0.32
1.16 1.12 1.08 1.19 1.32 1.51 1.57 1.27 1.11 1.01 0.95 0.95 0.95 0.87 0.74 0.70 0.74 0.74 0.62 0.52 0.48 0.50 0.48 0.42 0.35 0.29 0.24 0.20 0.16 0.11 0.08 0.06 0.06 0.06 0.07 0.08 0.12 0.20 0.24 0.26 0.28 0.31 0.35
1.50 1.49 1.41 1.35 1.31 1.40 1.54 1.36 1.21 1.09 0.98 0.92 0.91 0.81 0.72 0.70 0.70 0.63 0.51 0.45 0.46 0.50 0.53 0.46 0.39 0.33 0.24 0.18 0.16 0.13 0.11 0.09 0.09 0.10 0.10 0.10 0.14 0.22 0.29 0.34 0.35 0.36 0.38
1.59 1.56 1.59 1.56 1.46 1.46 1.51 1.44 1.33 1.16 1.05 0.93 0.84 0.79 0.77 0.73 0.70 0.61 0.54 0.48 0.51 0.51 0.58 0.57 0.46 0.36 0.24 0.18 0.18 0.15 0.14 0.11 0.12 0.13 0.12 0.13 0.20 0.31 0.37 0.39 0.34 0.35 0.39
1.87 1.71 1.66 1.69 1.72 1.63 1.59 1.48 1.35 1.13 1.05 1.03 0.94 0.83 0.80 0.86 0.83 0.79 0.67 0.57 0.58 0.55 0.57 0.55 0.50 0.37 0.25 0.20 0.19 0.15 0.16 0.17 0.15 0.14 0.14 0.15 0.24 0.35 0.40 0.38 0.33 0.32 0.35
2.24 2.07 1.98 2.00 1.96 1.82 1.73 1.60 1.44 1.19 1.02 1.00 1.00 0.97 0.92 0.89 0.80 0.76 0.70 0.57 0.54 0.54 0.56 0.56 0.48 0.41 0.35 0.28 0.26 0.23 0.20 0.20 0.18 0.19 0.19 0.18 0.20 0.30 0.40 0.43 0.40 0.39 0.40
2.40 2.40 2.30 2.28 2.25 2.06 1.97 1.80 1.52 1.32 1.11 0.99 0.98 1.02 0.95 0.86 0.79 0.74 0.70 0.65 0.57 0.55 0.54 0.57 0.57 0.53 0.47 0.41 0.35 0.29 0.26 0.24 0.23 0.24 0.24 0.25 0.23 0.26 0.37 0.48 0.53 0.55 0.59
2.39 2.55 2.60 2.57 2.48 2.30 2.09 1.91 1.64 1.48 1.29 1.18 1.11 1.04 0.97 0.92 0.90 0.86 0.75 0.68 0.62 0.57 0.57 0.62 0.63 0.61 0.56 0.49 0.42 0.36 0.33 0.30 0.25 0.24 0.25 0.25 0.24 0.26 0.33 0.47 0.60 0.71 0.78
2.35 2.58 2.74 2.83 2.94 2.68 2.41 2.16 1.88 1.67 1.51 1.38 1.24 1.11 0.99 0.93 0.98 0.97 0.90 0.76 0.66 0.68 0.67 0.68 0.72 0.74 0.69 0.59 0.52 0.46 0.40 0.36 0.30 0.27 0.27 0.26 0.23 0.21 0.26 0.41 0.57 0.67 0.76
2.34 2.46 2.62 2.64 2.89 2.99 2.83 2.52 2.13 1.87 1.67 1.54 1.42 1.28 1.16 1.02 1.03 1.06 1.01 0.96 0.86 0.82 0.80 0.77 0.74 0.69 0.65 0.59 0.54 0.51 0.48 0.44 0.39 0.36 0.36 0.30 0.25 0.20 0.22 0.31 0.42 0.52 0.62
2.36 2.43 2.60 2.60 2.69 2.89 3.02 2.85 2.54 2.25 1.97 1.79 1.68 1.51 1.40 1.29 1.22 1.21 1.12 1.10 1.12 1.04 0.94 0.88 0.83 0.75 0.70 0.66 0.62 0.61 0.60 0.54 0.48 0.44 0.40 0.33 0.31 0.28 0.26 0.26 0.29 0.36 0.45
2.36 2.54 2.66 2.80 2.84 3.00 3.30 3.28 2.97 2.69 2.43 2.23 2.02 1.89 1.75 1.61 1.49 1.39 1.33 1.28 1.30 1.23 1.11 1.03 0.93 0.86 0.79 0.79 0.77 0.70 0.65 0.59 0.56 0.50 0.44 0.40 0.38 0.37 0.39 0.39 0.39 0.38 0.42
2.05 2.32 2.39 2.63 2.83 3.00 3.10 3.04 2.86 2.64 2.49 2.38 2.32 2.26 2.09 1.91 1.78 1.61 1.48 1.45 1.45 1.37 1.24 1.18 1.14 1.03 0.96 0.97 0.94 0.78 0.66 0.59 0.55 0.50 0.50 0.50 0.45 0.41 0.42 0.48 0.51 0.50 0.42
1.66 1.85 2.00 2.18 2.42 2.64 2.77 2.76 2.79 2.82 2.65 2.43 2.34 2.29 2.25 2.16 2.02 1.83 1.65 1.58 1.55 1.52 1.38 1.29 1.32 1.28 1.17 1.16 1.14 1.09 0.91 0.74 0.58 0.51 0.51 0.50 0.49 0.51 0.47 0.45 0.45 0.48 0.50
1.34 1.53 1.67 1.83 1.99 2.12 2.48 2.74 2.76 2.83 2.76 2.46 2.20 2.04 2.12 2.21 2.22 2.07 1.90 1.83 1.75 1.72 1.64 1.53 1.48 1.44 1.41 1.35 1.36 1.47 1.25 0.95 0.70 0.59 0.58 0.55 0.53 0.56 0.58 0.54 0.51 0.48 0.49
1.06 1.26 1.46 1.65 1.79 1.83 2.09 2.38 2.42 2.30 2.26 2.15 2.08 2.10 2.14 2.18 2.22 2.23 2.13 1.99 1.91 1.86 1.79 1.85 1.88 1.77 1.66 1.52 1.42 1.34 1.31 1.14 1.06 0.85 0.67 0.65 0.63 0.59 0.63 0.63 0.59 0.55 0.52
0.88 0.97 1.18 1.46 1.61 1.67 1.75 1.94 2.16 2.21 2.17 2.18 2.18 2.16 2.11 2.02 2.06 2.15 2.17 2.06 1.88 1.75 1.69 1.75 1.83 1.89 1.78 1.64 1.53 1.44 1.37 1.22 1.13 1.11 0.90 0.74 0.72 0.66 0.65 0.68 0.70 0.71 0.70
0.75 0.76 0.90 1.11 1.40 1.57 1.63 1.72 1.85 1.93 1.91 1.95 2.03 2.08 2.10 2.01 1.90 1.91 1.96 1.93 1.89 1.78 1.66 1.68 1.80 1.87 1.88 1.83 1.70 1.56 1.47 1.37 1.19 1.19 1.12 0.93 0.88 0.80 0.76 0.79 0.82 0.85 0.85

GEFSSE_prec_meanprecacc_240.txt.gz
Total_Precipitation_Accumulation
0.10 0.20 0.42 0.52 0.57 0.55 0.50 0.45 0.43 0.42 0.42 0.44 0.46 0.46 0.41 0.39 0.36 0.35 0.37 0.40 0.47 0.53 0.59 0.63 0.61 0.56 0.47 0.40 0.27 0.17 0.15 0.17 0.13 0.10 0.09 0.11 0.16 0.17 0.14 0.13 0.15 0.21 0.27
0.10 0.18 0.37 0.50 0.62 0.64 0.58 0.51 0.44 0.40 0.42 0.50 0.53 0.50 0.46 0.43 0.42 0.39 0.46 0.48 0.54 0.56 0.58 0.62 0.62 0.51 0.40 0.29 0.20 0.15 0.14 0.08 0.04 0.03 0.02 0.05 0.10 0.13 0.12 0.11 0.15 0.22 0.28
0.14 0.21 0.37 0.51 0.63 0.65 0.58 0.52 0.43 0.40 0.42 0.53 0.60 0.55 0.52 0.48 0.47 0.45 0.48 0.53 0.59 0.59 0.51 0.49 0.47 0.37 0.28 0.18 0.14 0.12 0.11 0.06 0.04 0.03 0.03 0.07 0.11 0.17 0.17 0.15 0.20 0.28 0.29
0.20 0.25 0.38 0.56 0.72 0.73 0.65 0.55 0.48 0.48 0.50 0.57 0.68 0.69 0.63 0.58 0.56 0.55 0.52 0.51 0.56 0.53 0.45 0.39 0.33 0.24 0.18 0.15 0.11 0.10 0.08 0.05 0.04 0.03 0.06 0.09 0.12 0.23 0.24 0.22 0.25 0.31 0.27
0.27 0.33 0.45 0.63 0.81 0.81 0.71 0.61 0.54 0.56 0.60 0.64 0.71 0.79 0.79 0.69 0.67 0.65 0.59 0.52 0.53 0.47 0.38 0.31 0.25 0.17 0.12 0.11 0.10 0.10 0.09 0.06 0.04 0.04 0.07 0.12 0.16 0.28 0.27 0.25 0.29 0.32 0.27
0.35 0.45 0.56 0.70 0.89 0.96 0.81 0.70 0.62 0.62 0.68 0.74 0.80 0.87 0.87 0.84 0.82 0.77 0.61 0.51 0.46 0.40 0.32 0.26 0.22 0.15 0.10 0.09 0.09 0.08 0.10 0.09 0.05 0.05 0.06 0.10 0.16 0.30 0.32 0.27 0.30 0.33 0.33
0.40 0.57 0.73 0.87 1.01 1.15 1.03 0.88 0.79 0.76 0.77 0.82 0.87 0.88 0.91 0.92 0.93 0.85 0.63 0.48 0.42 0.39 0.33 0.24 0.21 0.16 0.12 0.11 0.10 0.08 0.09 0.08 0.07 0.08 0.06 0.09 0.16 0.33 0.37 0.34 0.36 0.39 0.36
0.51 0.66 0.91 1.17 1.23 1.35 1.31 1.09 0.95 0.88 0.89 0.93 0.93 0.92 0.94 0.97 0.98 0.94 0.68 0.50 0.42 0.40 0.37 0.29 0.23 0.19 0.15 0.13 0.12 0.10 0.10 0.07 0.06 0.07 0.07 0.08 0.14 0.25 0.29 0.29 0.32 0.35 0.33
0.78 0.81 0.95 1.20 1.37 1.47 1.50 1.25 1.12 0.99 0.92 0.96 1.02 1.02 0.93 0.87 0.90 0.88 0.69 0.54 0.47 0.49 0.45 0.39 0.32 0.26 0.19 0.16 0.14 0.11 0.08 0.06 0.05 0.07 0.06 0.07 0.11 0.21 0.25 0.25 0.29 0.32 0.33
1.17 1.13 1.10 1.21 1.34 1.52 1.59 1.30 1.13 1.03 0.96 0.96 0.96 0.88 0.75 0.71 0.75 0.76 0.63 0.55 0.49 0.52 0.50 0.43 0.36 0.30 0.25 0.20 0.16 0.11 0.08 0.06 0.06 0.06 0.07 0.08 0.14 0.22 0.26 0.28 0.29 0.32 0.35
1.52 1.52 1.44 1.37 1.33 1.41 1.56 1.38 1.23 1.11 0.99 0.94 0.92 0.82 0.73 0.70 0.71 0.63 0.51 0.47 0.48 0.52 0.55 0.48 0.40 0.34 0.25 0.19 0.16 0.13 0.11 0.09 0.09 0.10 0.10 0.11 0.16 0.24 0.30 0.35 0.36 0.37 0.38
1.61 1.58 1.61 1.58 1.48 1.48 1.52 1.47 1.37 1.19 1.07 0.94 0.85 0.80 0.78 0.74 0.70 0.62 0.54 0.49 0.52 0.53 0.60 0.58 0.47 0.38 0.24 0.18 0.18 0.16 0.14 0.11 0.12 0.13 0.13 0.15 0.22 0.32 0.38 0.39 0.34 0.35 0.39
1.89 1.74 1.68 1.71 1.75 1.66 1.61 1.51 1.39 1.16 1.07 1.05 0.95 0.84 0.81 0.88 0.84 0.80 0.67 0.57 0.59 0.57 0.59 0.57 0.52 0.39 0.26 0.21 0.20 0.16 0.16 0.17 0.15 0.15 0.15 0.18 0.25 0.37 0.41 0.39 0.33 0.32 0.36
2.26 2.09 2.00 2.02 1.98 1.85 1.76 1.64 1.50 1.23 1.05 1.02 1.01 0.98 0.92 0.89 0.80 0.77 0.71 0.58 0.55 0.55 0.58 0.59 0.50 0.43 0.37 0.30 0.27 0.24 0.21 0.20 0.19 0.20 0.20 0.20 0.21 0.31 0.41 0.45 0.40 0.40 0.40
2.41 2.42 2.32 2.30 2.27 2.09 1.99 1.84 1.56 1.38 1.15 1.01 0.99 1.02 0.95 0.87 0.80 0.75 0.71 0.68 0.59 0.57 0.56 0.64 0.65 0.57 0.50 0.42 0.36 0.30 0.27 0.25 0.24 0.24 0.25 0.26 0.23 0.27 0.38 0.49 0.55 0.56 0.60
2.40 2.56 2.62 2.58 2.50 2.33 2.12 1.94 1.68 1.52 1.33 1.20 1.12 1.05 0.98 0.93 0.90 0.86 0.76 0.70 0.64 0.59 0.59 0.68 0.74 0.67 0.61 0.52 0.43 0.37 0.34 0.31 0.26 0.24 0.25 0.26 0.24 0.26 0.34 0.48 0.62 0.73 0.80
2.36 2.59 2.75 2.84 2.95 2.69 2.44 2.18 1.91 1.71 1.54 1.40 1.25 1.12 1.00 0.94 0.98 0.98 0.91 0.77 0.67 0.70 0.70 0.72 0.79 0.83 0.76 0.63 0.55 0.48 0.42 0.37 0.31 0.27 0.28 0.26 0.24 0.22 0.27 0.43 0.60 0.70 0.80
2.36 2.48 2.63 2.65 2.90 3.00 2.84 2.54 2.16 1.91 1.70 1.56 1.44 1.29 1.17 1.03 1.04 1.07 1.02 0.97 0.87 0.85 0.84 0.81 0.78 0.73 0.69 0.62 0.57 0.53 0.50 0.46 0.40 0.37 0.37 0.31 0.25 0.21 0.23 0.31 0.43 0.53 0.65
2.37 2.44 2.61 2.61 2.70 2.89 3.03 2.86 2.56 2.28 2.01 1.82 1.70 1.52 1.41 1.30 1.23 1.22 1.14 1.11 1.14 1.07 0.98 0.93 0.87 0.79 0.73 0.68 0.63 0.63 0.62 0.56 0.50 0.46 0.41 0.35 0.32 0.29 0.27 0.27 0.30 0.37 0.46
2.37 2.55 2.68 2.81 2.85 3.01 3.30 3.30 2.99 2.72 2.48 2.28 2.05 1.91 1.77 1.62 1.50 1.41 1.35 1.29 1.31 1.25 1.14 1.06 0.97 0.91 0.82 0.81 0.80 0.72 0.67 0.61 0.57 0.51 0.46 0.42 0.39 0.39 0.40 0.40 0.40 0.39 0.43
2.05 2.33 2.40 2.64 2.84 3.01 3.10 3.05 2.87 2.66 2.52 2.43 2.38 2.29 2.11 1.92 1.80 1.63 1.50 1.47 1.46 1.39 1.27 1.21 1.17 1.06 0.99 1.01 0.97 0.80 0.68 0.60 0.56 0.51 0.51 0.51 0.47 0.44 0.45 0.50 0.53 0.52 0.43
1.66 1.85 2.00 2.19 2.43 2.64 2.78 2.76 2.79 2.83 2.67 2.46 2.40 2.36 2.30 2.19 2.04 1.85 1.67 1.60 1.57 1.54 1.40 1.32 1.35 1.30 1.19 1.18 1.17 1.10 0.92 0.75 0.58 0.52 0.52 0.51 0.50 0.52 0.48 0.47 0.47 0.49 0.51
1.34 1.53 1.68 1.84 2.00 2.12 2.49 2.75 2.77 2.85 2.77 2.48 2.23 2.08 2.17 2.25 2.24 2.09 1.91 1.85 1.77 1.74 1.66 1.55 1.50 1.46 1.43 1.37 1.38 1.48 1.27 0.96 0.71 0.60 0.59 0.56 0.54 0.57 0.59 0.55 0.52 0.50 0.50
1.06 1.26 1.47 1.65 1.80 1.84 2.10 2.39 2.42 2.31 2.26 2.16 2.09 2.12 2.16 2.20 2.25 2.25 2.14 2.01 1.93 1.88 1.81 1.87 1.90 1.79 1.69 1.53 1.43 1.35 1.32 1.15 1.07 0.86 0.68 0.66 0.64 0.60 0.64 0.64 0.60 0.56 0.53
0.88 0.97 1.18 1.47 1.62 1.68 1.75 1.95 2.17 2.22 2.17 2.19 2.19 2.18 2.12 2.04 2.08 2.17 2.18 2.07 1.89 1.77 1.70 1.76 1.85 1.91 1.80 1.65 1.54 1.45 1.38 1.23 1.14 1.13 0.92 0.75 0.73 0.67 0.66 0.70 0.72 0.72 0.71
0.75 0.76 0.91 1.11 1.41 1.57 1.63 1.72 1.86 1.94 1.92 1.96 2.05 2.10 2.12 2.02 1.92 1.92 1.97 1.95 1.91 1.79 1.67 1.69 1.81 1.89 1.90 1.85 1.71 1.56 1.47 1.38 1.20 1.21 1.15 0.96 0.91 0.83 0.79 0.81 0.84 0.87 0.86

GEFSSE_prec_meanprecacc_246.txt.gz
Total_Precipitation_Accumulation
0.11 0.20 0.44 0.54 0.59 0.57 0.52 0.49 0.45 0.44 0.44 0.45 0.47 0.46 0.41 0.39 0.37 0.35 0.38 0.42 0.48 0.54 0.60 0.63 0.62 0.57 0.49 0.41 0.27 0.17 0.15 0.17 0.13 0.10 0.09 0.12 0.17 0.18 0.15 0.14 0.16 0.21 0.29
0.10 0.19 0.39 0.53 0.65 0.67 0.62 0.54 0.46 0.42 0.44 0.52 0.55 0.52 0.47 0.43 0.43 0.40 0.48 0.51 0.56 0.57 0.59 0.63 0.63 0.53 0.41 0.30 0.20 0.16 0.15 0.08 0.05 0.03 0.02 0.05 0.10 0.14 0.13 0.12 0.16 0.23 0.29
0.14 0.21 0.38 0.53 0.66 0.67 0.61 0.54 0.45 0.42 0.44 0.55 0.62 0.56 0.52 0.49 0.48 0.46 0.50 0.55 0.61 0.61 0.52 0.50 0.48 0.37 0.29 0.19 0.14 0.13 0.11 0.06 0.04 0.03 0.03 0.07 0.12 0.18 0.19 0.16 0.21 0.29 0.30
0.20 0.26 0.39 0.58 0.74 0.75 0.67 0.57 0.50 0.49 0.52 0.59 0.71 0.71 0.64 0.59 0.57 0.57 0.54 0.54 0.58 0.54 0.47 0.40 0.34 0.24 0.19 0.15 0.12 0.10 0.08 0.05 0.04 0.03 0.06 0.10 0.13 0.25 0.27 0.25 0.27 0.32 0.28
0.28 0.33 0.46 0.64 0.83 0.83 0.73 0.64 0.57 0.58 0.61 0.66 0.73 0.82 0.81 0.70 0.68 0.66 0.61 0.53 0.54 0.48 0.39 0.31 0.25 0.17 0.12 0.11 0.11 0.10 0.09 0.07 0.04 0.04 0.08 0.12 0.17 0.31 0.31 0.28 0.30 0.33 0.28
0.36 0.45 0.57 0.72 0.91 0.98 0.83 0.72 0.65 0.65 0.70 0.76 0.83 0.89 0.91 0.87 0.86 0.80 0.63 0.52 0.47 0.41 0.33 0.27 0.23 0.15 0.10 0.10 0.09 0.09 0.10 0.09 0.05 0.05 0.06 0.10 0.17 0.32 0.35 0.30 0.31 0.35 0.34
0.40 0.58 0.75 0.89 1.03 1.17 1.05 0.91 0.82 0.79 0.80 0.85 0.90 0.91 0.95 0.96 0.98 0.89 0.65 0.50 0.43 0.39 0.34 0.26 0.22 0.16 0.12 0.12 0.10 0.08 0.09 0.08 0.07 0.08 0.07 0.09 0.17 0.34 0.39 0.37 0.39 0.41 0.38
0.51 0.67 0.92 1.20 1.26 1.37 1.33 1.11 0.98 0.91 0.91 0.95 0.97 0.97 0.99 1.02 1.01 0.97 0.71 0.52 0.43 0.41 0.38 0.31 0.24 0.20 0.15 0.14 0.12 0.10 0.10 0.07 0.06 0.07 0.07 0.08 0.15 0.26 0.32 0.32 0.34 0.37 0.34
0.79 0.81 0.96 1.22 1.39 1.48 1.51 1.26 1.15 1.03 0.95 0.98 1.04 1.06 0.97 0.92 0.93 0.90 0.71 0.56 0.49 0.50 0.47 0.41 0.33 0.27 0.20 0.17 0.15 0.11 0.08 0.06 0.05 0.07 0.06 0.08 0.13 0.23 0.28 0.27 0.30 0.33 0.34
1.18 1.14 1.12 1.23 1.35 1.53 1.60 1.31 1.15 1.05 1.00 1.00 0.99 0.90 0.77 0.74 0.77 0.78 0.66 0.56 0.51 0.54 0.52 0.44 0.38 0.31 0.26 0.21 0.16 0.12 0.08 0.06 0.06 0.06 0.07 0.09 0.15 0.24 0.28 0.29 0.29 0.32 0.37
1.54 1.55 1.46 1.39 1.34 1.43 1.57 1.40 1.25 1.13 1.02 0.98 0.96 0.84 0.74 0.72 0.72 0.65 0.54 0.50 0.50 0.54 0.56 0.49 0.41 0.35 0.26 0.19 0.16 0.13 0.11 0.09 0.09 0.10 0.11 0.12 0.18 0.25 0.31 0.35 0.36 0.37 0.39
1.64 1.61 1.65 1.61 1.49 1.49 1.54 1.49 1.39 1.21 1.09 0.97 0.88 0.83 0.80 0.76 0.72 0.63 0.57 0.52 0.55 0.55 0.62 0.60 0.49 0.39 0.26 0.19 0.18 0.16 0.14 0.11 0.12 0.13 0.14 0.16 0.23 0.33 0.39 0.40 0.35 0.36 0.40
1.92 1.77 1.72 1.76 1.77 1.67 1.62 1.53 1.41 1.20 1.11 1.09 0.99 0.87 0.84 0.90 0.87 0.82 0.69 0.59 0.60 0.58 0.61 0.60 0.55 0.41 0.27 0.22 0.20 0.16 0.16 0.17 0.15 0.15 0.16 0.19 0.27 0.39 0.43 0.41 0.34 0.33 0.36
2.30 2.13 2.04 2.07 2.02 1.88 1.78 1.65 1.51 1.27 1.09 1.06 1.04 1.01 0.95 0.92 0.82 0.78 0.73 0.61 0.57 0.56 0.58 0.59 0.51 0.44 0.38 0.31 0.28 0.25 0.22 0.20 0.19 0.20 0.20 0.21 0.23 0.33 0.44 0.47 0.42 0.41 0.41
2.44 2.46 2.36 2.35 2.34 2.16 2.04 1.87 1.58 1.40 1.18 1.04 1.02 1.05 0.98 0.89 0.82 0.76 0.73 0.71 0.62 0.59 0.58 0.65 0.65 0.57 0.50 0.43 0.36 0.31 0.28 0.26 0.25 0.25 0.26 0.27 0.25 0.29 0.41 0.53 0.57 0.59 0.62
2.42 2.60 2.66 2.62 2.55 2.41 2.20 2.02 1.73 1.55 1.35 1.23 1.14 1.08 1.01 0.96 0.93 0.88 0.77 0.72 0.67 0.63 0.62 0.71 0.76 0.68 0.62 0.52 0.44 0.37 0.34 0.31 0.27 0.26 0.26 0.27 0.25 0.27 0.36 0.52 0.66 0.77 0.83
2.37 2.61 2.79 2.89 2.98 2.73 2.48 2.24 1.98 1.78 1.60 1.44 1.28 1.15 1.03 0.97 1.02 1.00 0.93 0.78 0.71 0.74 0.74 0.77 0.84 0.86 0.79 0.66 0.56 0.49 0.42 0.38 0.32 0.29 0.30 0.27 0.24 0.22 0.29 0.46 0.63 0.74 0.83
2.37 2.50 2.65 2.68 2.93 3.02 2.86 2.57 2.18 1.94 1.75 1.61 1.47 1.32 1.20 1.06 1.07 1.09 1.04 0.98 0.89 0.88 0.89 0.87 0.82 0.77 0.73 0.66 0.59 0.55 0.51 0.47 0.41 0.39 0.39 0.33 0.27 0.21 0.23 0.33 0.45 0.56 0.67
2.39 2.46 2.63 2.63 2.72 2.91 3.04 2.88 2.58 2.31 2.04 1.86 1.75 1.56 1.45 1.33 1.25 1.25 1.16 1.13 1.15 1.08 1.00 0.96 0.91 0.82 0.75 0.69 0.65 0.65 0.63 0.57 0.51 0.47 0.43 0.36 0.34 0.30 0.29 0.29 0.31 0.38 0.48
2.39 2.57 2.69 2.83 2.87 3.04 3.32 3.31 3.02 2.74 2.50 2.30 2.08 1.95 1.80 1.65 1.53 1.43 1.37 1.32 1.33 1.27 1.16 1.08 1.01 0.94 0.84 0.83 0.81 0.73 0.68 0.63 0.59 0.53 0.48 0.44 0.41 0.40 0.42 0.41 0.41 0.41 0.44
2.08 2.35 2.42 2.65 2.85 3.03 3.13 3.07 2.88 2.67 2.53 2.45 2.39 2.32 2.14 1.95 1.82 1.66 1.52 1.49 1.48 1.41 1.29 1.23 1.19 1.08 1.02 1.04 1.00 0.82 0.70 0.63 0.59 0.54 0.54 0.54 0.48 0.45 0.46 0.50 0.54 0.53 0.45
1.68 1.87 2.02 2.20 2.44 2.66 2.79 2.78 2.81 2.84 2.69 2.49 2.43 2.40 2.34 2.24 2.09 1.89 1.70 1.63 1.59 1.57 1.43 1.34 1.36 1.32 1.22 1.23 1.25 1.17 0.97 0.79 0.62 0.56 0.56 0.55 0.53 0.53 0.49 0.48 0.47 0.50 0.52
1.36 1.55 1.69 1.85 2.01 2.13 2.50 2.77 2.80 2.87 2.81 2.52 2.27 2.13 2.22 2.32 2.31 2.14 1.96 1.89 1.80 1.77 1.68 1.57 1.51 1.48 1.45 1.40 1.43 1.56 1.34 1.02 0.75 0.63 0.62 0.60 0.57 0.59 0.60 0.56 0.52 0.50 0.51
1.07 1.27 1.48 1.66 1.81 1.85 2.12 2.40 2.44 2.32 2.28 2.17 2.11 2.15 2.20 2.26 2.32 2.31 2.20 2.04 1.95 1.90 1.83 1.88 1.91 1.80 1.70 1.56 1.45 1.39 1.36 1.19 1.11 0.89 0.71 0.69 0.66 0.62 0.66 0.65 0.61 0.57 0.54
0.88 0.98 1.18 1.48 1.63 1.69 1.76 1.97 2.18 2.23 2.18 2.20 2.21 2.20 2.15 2.07 2.12 2.23 2.25 2.13 1.92 1.79 1.72 1.78 1.87 1.92 1.81 1.67 1.56 1.47 1.41 1.26 1.17 1.15 0.94 0.78 0.75 0.69 0.67 0.71 0.73 0.73 0.72
0.76 0.77 0.91 1.12 1.42 1.59 1.65 1.74 1.87 1.95 1.93 1.97 2.05 2.11 2.13 2.03 1.94 1.95 2.01 1.99 1.95 1.82 1.69 1.71 1.83 1.90 1.92 1.86 1.73 1.58 1.49 1.40 1.22 1.23 1.16 0.97 0.93 0.84 0.80 0.82 0.85 0.89 0.89